2016 Cux-Wetter.de -Die Nutzung der Wetterdaten nur mit ausdrcklicher Genehmigung
Wetterdaten: Montag, 27.06.2016
Datum Zeit Temp. A. Feuchte A. Luftdruck Regen Wind Richtung Richtung Sonnenschein Solar Taupunkt Windchill Windben
27.06.2016 00:00 14,3 C 90 % 1014,8 hPa 0,0 l/m 2,4 km/h (1 Bft) SW 235 0 min 0 W/m 12,7 C 14,3 C 3,2 km/h (1 Bft)
27.06.2016 00:03 14,3 C 90 % 1014,8 hPa 0,0 l/m 3,5 km/h (1 Bft) W 262 0 min 0 W/m 12,7 C 14,3 C 4,8 km/h (1 Bft)
27.06.2016 00:06 14,3 C 90 % 1014,8 hPa 0,0 l/m 3,4 km/h (1 Bft) W-SW 257 0 min 0 W/m 12,7 C 14,3 C 4,8 km/h (1 Bft)
27.06.2016 00:09 14,3 C 90 % 1014,8 hPa 0,0 l/m 3,0 km/h (1 Bft) W-SW 257 0 min 0 W/m 12,7 C 14,3 C 6,4 km/h (2 Bft)
27.06.2016 00:12 14,3 C 91 % 1014,7 hPa 0,0 l/m 1,1 km/h (1 Bft) W-SW 257 0 min 0 W/m 12,8 C 14,3 C 3,2 km/h (1 Bft)
27.06.2016 00:15 14,3 C 90 % 1014,6 hPa 0,0 l/m 1,3 km/h (1 Bft) W-SW 257 0 min 0 W/m 12,7 C 14,3 C 4,8 km/h (1 Bft)
27.06.2016 00:18 14,2 C 90 % 1014,6 hPa 0,0 l/m 1,4 km/h (1 Bft) W-SW 257 0 min 0 W/m 12,6 C 14,2 C 3,2 km/h (1 Bft)
27.06.2016 00:21 14,0 C 90 % 1014,6 hPa 0,0 l/m 1,7 km/h (1 Bft) W-SW 257 0 min 0 W/m 12,4 C 14,0 C 3,2 km/h (1 Bft)
27.06.2016 00:24 13,7 C 90 % 1014,6 hPa 0,0 l/m 2,4 km/h (1 Bft) W-SW 257 0 min 0 W/m 12,1 C 13,7 C 3,2 km/h (1 Bft)
27.06.2016 00:27 13,6 C 91 % 1014,6 hPa 0,0 l/m 1,7 km/h (1 Bft) W-SW 257 0 min 0 W/m 12,2 C 13,6 C 3,2 km/h (1 Bft)
27.06.2016 00:30 13,5 C 92 % 1014,7 hPa 0,0 l/m 1,8 km/h (1 Bft) W-SW 257 0 min 0 W/m 12,2 C 13,5 C 3,2 km/h (1 Bft)
27.06.2016 00:33 13,5 C 92 % 1014,7 hPa 0,0 l/m 1,5 km/h (1 Bft) W-SW 257 0 min 0 W/m 12,2 C 13,5 C 3,2 km/h (1 Bft)
27.06.2016 00:36 13,5 C 92 % 1014,6 hPa 0,0 l/m 0,9 km/h (0 Bft) W-SW 257 0 min 0 W/m 12,2 C 13,5 C 1,6 km/h (1 Bft)
27.06.2016 00:39 13,5 C 92 % 1014,6 hPa 0,0 l/m 0,3 km/h (0 Bft) W-SW 257 0 min 0 W/m 12,2 C 13,5 C 1,6 km/h (1 Bft)
27.06.2016 00:42 13,6 C 93 % 1014,5 hPa 0,0 l/m 0,3 km/h (0 Bft) W-SW 257 0 min 0 W/m 12,5 C 13,6 C 1,6 km/h (1 Bft)
27.06.2016 00:45 13,6 C 93 % 1014,6 hPa 0,0 l/m 0,5 km/h (0 Bft) W-SW 257 0 min 0 W/m 12,5 C 13,6 C 3,2 km/h (1 Bft)
27.06.2016 00:48 13,6 C 93 % 1014,6 hPa 0,0 l/m 1,9 km/h (1 Bft) W-SW 257 0 min 0 W/m 12,5 C 13,6 C 4,8 km/h (1 Bft)
27.06.2016 00:51 13,5 C 93 % 1014,6 hPa 0,0 l/m 1,2 km/h (1 Bft) W-SW 257 0 min 0 W/m 12,4 C 13,5 C 3,2 km/h (1 Bft)
27.06.2016 00:54 13,4 C 93 % 1014,7 hPa 0,0 l/m 1,4 km/h (1 Bft) W-SW 257 0 min 0 W/m 12,3 C 13,4 C 3,2 km/h (1 Bft)
27.06.2016 00:57 13,4 C 93 % 1014,7 hPa 0,0 l/m 1,4 km/h (1 Bft) W-SW 257 0 min 0 W/m 12,3 C 13,4 C 3,2 km/h (1 Bft)
27.06.2016 01:00 13,3 C 93 % 1014,6 hPa 0,0 l/m 1,4 km/h (1 Bft) W-SW 251 0 min 0 W/m 12,2 C 13,3 C 3,2 km/h (1 Bft)
27.06.2016 01:03 13,4 C 94 % 1014,6 hPa 0,0 l/m 1,9 km/h (1 Bft) SW 227 0 min 0 W/m 12,5 C 13,4 C 4,8 km/h (1 Bft)
27.06.2016 01:06 13,4 C 94 % 1014,6 hPa 0,0 l/m 2,2 km/h (1 Bft) S 180 0 min 0 W/m 12,5 C 13,4 C 4,8 km/h (1 Bft)
27.06.2016 01:09 13,4 C 94 % 1014,6 hPa 0,0 l/m 1,8 km/h (1 Bft) S 180 0 min 0 W/m 12,5 C 13,4 C 3,2 km/h (1 Bft)
27.06.2016 01:12 13,4 C 94 % 1014,6 hPa 0,0 l/m 3,1 km/h (1 Bft) S-SW 205 0 min 0 W/m 12,5 C 13,4 C 6,4 km/h (2 Bft)
27.06.2016 01:15 13,3 C 94 % 1014,5 hPa 0,0 l/m 1,4 km/h (1 Bft) S-SW 204 0 min 0 W/m 12,4 C 13,3 C 3,2 km/h (1 Bft)
27.06.2016 01:18 13,3 C 94 % 1014,5 hPa 0,0 l/m 0,9 km/h (0 Bft) S-SW 204 0 min 0 W/m 12,4 C 13,3 C 3,2 km/h (1 Bft)
27.06.2016 01:21 13,3 C 94 % 1014,5 hPa 0,0 l/m 1,5 km/h (1 Bft) S-SW 204 0 min 0 W/m 12,4 C 13,3 C 3,2 km/h (1 Bft)
27.06.2016 01:24 13,2 C 94 % 1014,5 hPa 0,0 l/m 1,9 km/h (1 Bft) S-SW 204 0 min 0 W/m 12,3 C 13,2 C 3,2 km/h (1 Bft)
27.06.2016 01:27 13,2 C 94 % 1014,5 hPa 0,0 l/m 1,3 km/h (1 Bft) S-SW 204 0 min 0 W/m 12,3 C 13,2 C 3,2 km/h (1 Bft)
27.06.2016 01:30 13,2 C 94 % 1014,4 hPa 0,0 l/m 1,0 km/h (0 Bft) S-SW 204 0 min 0 W/m 12,3 C 13,2 C 3,2 km/h (1 Bft)
27.06.2016 01:33 13,2 C 94 % 1014,4 hPa 0,0 l/m 1,5 km/h (1 Bft) S-SW 204 0 min 0 W/m 12,3 C 13,2 C 3,2 km/h (1 Bft)
27.06.2016 01:36 13,2 C 94 % 1014,4 hPa 0,0 l/m 0,7 km/h (0 Bft) S-SW 205 0 min 0 W/m 12,3 C 13,2 C 3,2 km/h (1 Bft)
27.06.2016 01:39 13,2 C 94 % 1014,3 hPa 0,0 l/m 1,6 km/h (1 Bft) S-SW 204 0 min 0 W/m 12,3 C 13,2 C 3,2 km/h (1 Bft)
27.06.2016 01:42 13,2 C 94 % 1014,4 hPa 0,0 l/m 1,3 km/h (1 Bft) S-SW 204 0 min 0 W/m 12,3 C 13,2 C 3,2 km/h (1 Bft)
27.06.2016 01:45 13,1 C 94 % 1014,4 hPa 0,0 l/m 2,0 km/h (1 Bft) S-SW 200 0 min 0 W/m 12,2 C 13,1 C 3,2 km/h (1 Bft)
27.06.2016 01:48 13,0 C 94 % 1014,4 hPa 0,0 l/m 1,0 km/h (0 Bft) S-SW 200 0 min 0 W/m 12,1 C 13,0 C 3,2 km/h (1 Bft)
27.06.2016 01:51 12,9 C 94 % 1014,4 hPa 0,0 l/m 1,8 km/h (1 Bft) S-SW 200 0 min 0 W/m 12,0 C 12,9 C 3,2 km/h (1 Bft)
27.06.2016 01:54 12,9 C 94 % 1014,3 hPa 0,0 l/m 1,4 km/h (1 Bft) S-SW 200 0 min 0 W/m 12,0 C 12,9 C 3,2 km/h (1 Bft)
27.06.2016 01:57 12,8 C 94 % 1014,4 hPa 0,0 l/m 1,4 km/h (1 Bft) S-SW 200 0 min 0 W/m 11,9 C 12,8 C 3,2 km/h (1 Bft)
27.06.2016 02:00 12,8 C 94 % 1014,4 hPa 0,0 l/m 1,2 km/h (1 Bft) S-SW 200 0 min 0 W/m 11,9 C 12,8 C 3,2 km/h (1 Bft)
27.06.2016 02:03 12,8 C 94 % 1014,3 hPa 0,0 l/m 1,6 km/h (1 Bft) S-SW 200 0 min 0 W/m 11,9 C 12,8 C 3,2 km/h (1 Bft)
27.06.2016 02:06 12,7 C 94 % 1014,3 hPa 0,0 l/m 2,0 km/h (1 Bft) S-SW 200 0 min 0 W/m 11,8 C 12,7 C 3,2 km/h (1 Bft)
27.06.2016 02:09 12,7 C 95 % 1014,3 hPa 0,0 l/m 1,8 km/h (1 Bft) S-SW 200 0 min 0 W/m 11,9 C 12,7 C 3,2 km/h (1 Bft)
27.06.2016 02:12 12,7 C 95 % 1014,3 hPa 0,0 l/m 1,5 km/h (1 Bft) S-SW 200 0 min 0 W/m 11,9 C 12,7 C 3,2 km/h (1 Bft)
27.06.2016 02:15 12,7 C 95 % 1014,4 hPa 0,0 l/m 2,0 km/h (1 Bft) S-SW 200 0 min 0 W/m 11,9 C 12,7 C 3,2 km/h (1 Bft)
27.06.2016 02:18 12,7 C 95 % 1014,4 hPa 0,0 l/m 3,0 km/h (1 Bft) S-SW 200 0 min 0 W/m 11,9 C 12,7 C 4,8 km/h (1 Bft)
27.06.2016 02:21 12,7 C 95 % 1014,4 hPa 0,0 l/m 2,5 km/h (1 Bft) S-SW 200 0 min 0 W/m 11,9 C 12,7 C 3,2 km/h (1 Bft)
27.06.2016 02:24 12,7 C 95 % 1014,4 hPa 0,0 l/m 2,6 km/h (1 Bft) S-SW 200 0 min 0 W/m 11,9 C 12,7 C 4,8 km/h (1 Bft)
27.06.2016 02:27 12,6 C 95 % 1014,4 hPa 0,0 l/m 2,5 km/h (1 Bft) S-SW 200 0 min 0 W/m 11,8 C 12,6 C 3,2 km/h (1 Bft)
27.06.2016 02:30 12,7 C 95 % 1014,3 hPa 0,0 l/m 2,9 km/h (1 Bft) S-SW 200 0 min 0 W/m 11,9 C 12,7 C 4,8 km/h (1 Bft)
27.06.2016 02:33 12,6 C 95 % 1014,3 hPa 0,0 l/m 2,5 km/h (1 Bft) S-SW 200 0 min 0 W/m 11,8 C 12,6 C 4,8 km/h (1 Bft)
27.06.2016 02:36 12,6 C 95 % 1014,3 hPa 0,0 l/m 2,4 km/h (1 Bft) S-SW 202 0 min 0 W/m 11,8 C 12,6 C 4,8 km/h (1 Bft)
27.06.2016 02:39 12,7 C 95 % 1014,4 hPa 0,0 l/m 3,4 km/h (1 Bft) S-SW 212 0 min 0 W/m 11,9 C 12,7 C 6,4 km/h (2 Bft)
27.06.2016 02:42 12,7 C 95 % 1014,3 hPa 0,0 l/m 3,6 km/h (1 Bft) S-SW 212 0 min 0 W/m 11,9 C 12,7 C 8,0 km/h (2 Bft)
27.06.2016 02:45 12,6 C 95 % 1014,3 hPa 0,0 l/m 2,9 km/h (1 Bft) S 175 0 min 0 W/m 11,8 C 12,6 C 4,8 km/h (1 Bft)
27.06.2016 02:48 12,6 C 95 % 1014,4 hPa 0,0 l/m 4,1 km/h (1 Bft) S-SW 209 0 min 0 W/m 11,8 C 12,6 C 8,0 km/h (2 Bft)
27.06.2016 02:51 12,6 C 95 % 1014,3 hPa 0,0 l/m 3,9 km/h (1 Bft) SW 215 0 min 0 W/m 11,8 C 12,6 C 8,0 km/h (2 Bft)
27.06.2016 02:54 12,6 C 95 % 1014,3 hPa 0,0 l/m 5,3 km/h (1 Bft) S 181 0 min 0 W/m 11,8 C 12,6 C 9,7 km/h (2 Bft)
27.06.2016 02:57 12,6 C 95 % 1014,3 hPa 0,0 l/m 4,8 km/h (1 Bft) SW 223 0 min 0 W/m 11,8 C 12,6 C 9,7 km/h (2 Bft)
27.06.2016 03:00 12,6 C 95 % 1014,3 hPa 0,0 l/m 4,4 km/h (1 Bft) SW 235 0 min 0 W/m 11,8 C 12,6 C 8,0 km/h (2 Bft)
27.06.2016 03:03 12,6 C 95 % 1014,3 hPa 0,0 l/m 5,5 km/h (2 Bft) SW 224 0 min 0 W/m 11,8 C 12,6 C 9,7 km/h (2 Bft)
27.06.2016 03:06 12,6 C 95 % 1014,3 hPa 0,0 l/m 5,5 km/h (2 Bft) SW 224 0 min 0 W/m 11,8 C 12,6 C 8,0 km/h (2 Bft)
27.06.2016 03:09 12,6 C 95 % 1014,2 hPa 0,0 l/m 5,7 km/h (2 Bft) SW 223 0 min 0 W/m 11,8 C 12,6 C 9,7 km/h (2 Bft)
27.06.2016 03:12 12,7 C 95 % 1014,2 hPa 0,0 l/m 5,6 km/h (2 Bft) W-SW 240 0 min 0 W/m 11,9 C 12,7 C 11,3 km/h (2 Bft)
27.06.2016 03:15 12,7 C 95 % 1014,2 hPa 0,0 l/m 5,0 km/h (1 Bft) SW 221 0 min 0 W/m 11,9 C 12,7 C 8,0 km/h (2 Bft)
27.06.2016 03:18 12,7 C 95 % 1014,2 hPa 0,0 l/m 5,9 km/h (2 Bft) W-SW 244 0 min 0 W/m 11,9 C 12,7 C 8,0 km/h (2 Bft)
27.06.2016 03:21 12,8 C 94 % 1014,3 hPa 0,0 l/m 5,0 km/h (1 Bft) S-SW 202 0 min 0 W/m 11,9 C 12,8 C 8,0 km/h (2 Bft)
27.06.2016 03:24 12,8 C 94 % 1014,2 hPa 0,0 l/m 6,4 km/h (2 Bft) S-SW 209 0 min 0 W/m 11,9 C 12,8 C 11,3 km/h (2 Bft)
27.06.2016 03:27 12,8 C 94 % 1014,2 hPa 0,0 l/m 6,3 km/h (2 Bft) S-SW 209 0 min 0 W/m 11,9 C 12,8 C 9,7 km/h (2 Bft)
27.06.2016 03:30 12,8 C 94 % 1014,1 hPa 0,0 l/m 7,1 km/h (2 Bft) SW 235 0 min 0 W/m 11,9 C 12,4 C 12,9 km/h (3 Bft)
27.06.2016 03:33 12,8 C 93 % 1014,2 hPa 0,0 l/m 6,8 km/h (2 Bft) SW 228 0 min 0 W/m 11,7 C 12,6 C 11,3 km/h (2 Bft)
27.06.2016 03:36 12,9 C 93 % 1014,1 hPa 0,0 l/m 6,9 km/h (2 Bft) SW 215 0 min 0 W/m 11,8 C 12,6 C 12,9 km/h (3 Bft)
27.06.2016 03:39 12,9 C 93 % 1014,1 hPa 0,0 l/m 9,1 km/h (2 Bft) S 184 0 min 0 W/m 11,8 C 11,3 C 14,5 km/h (3 Bft)
27.06.2016 03:42 13,0 C 93 % 1014,2 hPa 0,0 l/m 8,3 km/h (2 Bft) SW 223 0 min 0 W/m 11,9 C 11,8 C 14,5 km/h (3 Bft)
27.06.2016 03:45 13,1 C 92 % 1014,2 hPa 0,0 l/m 9,8 km/h (2 Bft) S-SW 199 0 min 0 W/m 11,8 C 11,1 C 14,5 km/h (3 Bft)
27.06.2016 03:48 13,1 C 92 % 1014,1 hPa 0,0 l/m 10,7 km/h (2 Bft) SW 236 0 min 0 W/m 11,8 C 10,7 C 16,1 km/h (3 Bft)
27.06.2016 03:51 13,2 C 92 % 1014,0 hPa 0,0 l/m 9,1 km/h (2 Bft) SW 220 0 min 0 W/m 11,9 C 11,6 C 14,5 km/h (3 Bft)
27.06.2016 03:54 13,2 C 92 % 1014,0 hPa 0,0 l/m 9,5 km/h (2 Bft) S-SW 209 0 min 0 W/m 11,9 C 11,4 C 17,7 km/h (3 Bft)
27.06.2016 03:57 13,3 C 91 % 1014,1 hPa 0,0 l/m 11,8 km/h (2 Bft) SW 221 0 min 0 W/m 11,9 C 10,4 C 22,5 km/h (4 Bft)
27.06.2016 04:00 13,3 C 91 % 1014,1 hPa 0,0 l/m 8,3 km/h (2 Bft) SW 225 0 min 0 W/m 11,9 C 12,1 C 12,9 km/h (3 Bft)
27.06.2016 04:03 13,3 C 91 % 1014,1 hPa 0,0 l/m 8,4 km/h (2 Bft) SW 232 0 min 0 W/m 11,9 C 12,1 C 12,9 km/h (3 Bft)
27.06.2016 04:06 13,3 C 91 % 1014,0 hPa 0,0 l/m 10,8 km/h (2 Bft) W-SW 243 0 min 0 W/m 11,9 C 10,9 C 17,7 km/h (3 Bft)
27.06.2016 04:09 13,4 C 91 % 1014,0 hPa 0,0 l/m 10,2 km/h (2 Bft) SW 236 0 min 0 W/m 12,0 C 11,3 C 17,7 km/h (3 Bft)
27.06.2016 04:12 13,4 C 91 % 1014,1 hPa 0,0 l/m 9,5 km/h (2 Bft) SW 231 0 min 0 W/m 12,0 C 11,6 C 17,7 km/h (3 Bft)
27.06.2016 04:15 13,4 C 91 % 1014,1 hPa 0,0 l/m 9,5 km/h (2 Bft) S-SW 209 0 min 0 W/m 12,0 C 11,6 C 16,1 km/h (3 Bft)
27.06.2016 04:18 13,3 C 91 % 1014,1 hPa 0,0 l/m 10,0 km/h (2 Bft) W-SW 243 0 min 0 W/m 11,9 C 11,2 C 16,1 km/h (3 Bft)
27.06.2016 04:21 13,3 C 90 % 1014,1 hPa 0,0 l/m 8,9 km/h (2 Bft) W-SW 238 0 min 0 W/m 11,7 C 11,8 C 16,1 km/h (3 Bft)
27.06.2016 04:24 13,3 C 90 % 1014,2 hPa 0,0 l/m 10,2 km/h (2 Bft) SW 227 0 min 0 W/m 11,7 C 11,1 C 17,7 km/h (3 Bft)
27.06.2016 04:27 13,4 C 90 % 1014,2 hPa 0,0 l/m 11,5 km/h (2 Bft) SW 220 0 min 0 W/m 11,8 C 10,6 C 20,9 km/h (4 Bft)
27.06.2016 04:30 13,4 C 90 % 1014,1 hPa 0,0 l/m 14,5 km/h (3 Bft) S-SW 213 0 min 0 W/m 11,8 C 9,4 C 24,1 km/h (4 Bft)
27.06.2016 04:33 13,5 C 90 % 1014,2 hPa 0,0 l/m 11,0 km/h (2 Bft) SW 232 0 min 0 W/m 11,9 C 11,0 C 17,7 km/h (3 Bft)
27.06.2016 04:36 13,6 C 90 % 1014,2 hPa 0,0 l/m 14,6 km/h (3 Bft) SW 219 0 min 0 W/m 12,0 C 9,6 C 22,5 km/h (4 Bft)
27.06.2016 04:39 13,6 C 90 % 1014,2 hPa 0,0 l/m 13,7 km/h (3 Bft) SW 234 0 min 0 W/m 12,0 C 10,0 C 20,9 km/h (4 Bft)
27.06.2016 04:42 13,7 C 90 % 1014,2 hPa 0,0 l/m 12,1 km/h (2 Bft) S-SW 209 0 min 0 W/m 12,1 C 10,7 C 19,3 km/h (3 Bft)
27.06.2016 04:45 13,7 C 90 % 1014,1 hPa 0,0 l/m 12,7 km/h (3 Bft) SW 236 0 min 0 W/m 12,1 C 10,5 C 19,3 km/h (3 Bft)
27.06.2016 04:48 13,7 C 89 % 1014,2 hPa 0,0 l/m 12,4 km/h (2 Bft) SW 226 0 min 0 W/m 11,9 C 10,6 C 17,7 km/h (3 Bft)
27.06.2016 04:51 13,7 C 89 % 1014,1 hPa 0,0 l/m 9,6 km/h (2 Bft) SW 220 0 min 0 W/m 11,9 C 11,9 C 14,5 km/h (3 Bft)
27.06.2016 04:54 13,6 C 89 % 1014,1 hPa 0,0 l/m 9,6 km/h (2 Bft) S-SW 211 0 min 0 W/m 11,8 C 11,8 C 14,5 km/h (3 Bft)
27.06.2016 04:57 13,6 C 89 % 1014,1 hPa 0,0 l/m 8,2 km/h (2 Bft) W-SW 241 0 min 0 W/m 11,8 C 12,5 C 12,9 km/h (3 Bft)
27.06.2016 05:00 13,6 C 89 % 1014,1 hPa 0,0 l/m 7,4 km/h (2 Bft) SW 220 0 min 0 W/m 11,8 C 13,0 C 12,9 km/h (3 Bft)
27.06.2016 05:03 13,5 C 89 % 1014,0 hPa 0,0 l/m 7,4 km/h (2 Bft) SW 225 0 min 0 W/m 11,7 C 12,9 C 11,3 km/h (2 Bft)
27.06.2016 05:06 13,4 C 89 % 1013,9 hPa 0,0 l/m 6,4 km/h (2 Bft) S 191 0 min 0 W/m 11,6 C 13,4 C 11,3 km/h (2 Bft)
27.06.2016 05:09 13,4 C 88 % 1013,9 hPa 0,0 l/m 6,6 km/h (2 Bft) SW 229 0 min 5 W/m 11,5 C 13,3 C 9,7 km/h (2 Bft)
27.06.2016 05:12 13,3 C 88 % 1013,9 hPa 0,0 l/m 8,1 km/h (2 Bft) SW 219 0 min 5 W/m 11,4 C 12,3 C 12,9 km/h (3 Bft)
27.06.2016 05:15 13,3 C 88 % 1014,0 hPa 0,0 l/m 8,7 km/h (2 Bft) W-SW 242 0 min 7 W/m 11,4 C 11,9 C 12,9 km/h (3 Bft)
27.06.2016 05:18 13,3 C 88 % 1014,0 hPa 0,0 l/m 8,0 km/h (2 Bft) SW 220 0 min 9 W/m 11,4 C 12,3 C 12,9 km/h (3 Bft)
27.06.2016 05:21 13,3 C 88 % 1014,0 hPa 0,0 l/m 7,5 km/h (2 Bft) S-SW 204 0 min 12 W/m 11,4 C 12,6 C 12,9 km/h (3 Bft)
27.06.2016 05:24 13,4 C 88 % 1014,0 hPa 0,0 l/m 9,2 km/h (2 Bft) S-SW 213 0 min 14 W/m 11,5 C 11,8 C 12,9 km/h (3 Bft)
27.06.2016 05:27 13,5 C 88 % 1014,0 hPa 0,0 l/m 8,3 km/h (2 Bft) S-SW 212 0 min 19 W/m 11,6 C 12,4 C 12,9 km/h (3 Bft)
27.06.2016 05:30 13,6 C 88 % 1014,0 hPa 0,0 l/m 7,9 km/h (2 Bft) W-SW 241 0 min 23 W/m 11,6 C 12,7 C 12,9 km/h (3 Bft)
27.06.2016 05:33 13,7 C 88 % 1014,0 hPa 0,0 l/m 10,2 km/h (2 Bft) SW 227 0 min 32 W/m 11,7 C 11,6 C 14,5 km/h (3 Bft)
27.06.2016 05:36 13,8 C 88 % 1014,1 hPa 0,0 l/m 9,9 km/h (2 Bft) S-SW 197 0 min 25 W/m 11,8 C 11,8 C 16,1 km/h (3 Bft)
27.06.2016 05:39 13,9 C 88 % 1014,0 hPa 0,0 l/m 11,3 km/h (2 Bft) SW 223 0 min 25 W/m 11,9 C 11,3 C 22,5 km/h (4 Bft)
27.06.2016 05:42 14,1 C 88 % 1014,0 hPa 0,0 l/m 9,0 km/h (2 Bft) SW 225 0 min 26 W/m 12,1 C 12,6 C 19,3 km/h (3 Bft)
27.06.2016 05:45 14,1 C 88 % 1014,0 hPa 0,0 l/m 5,0 km/h (1 Bft) SW 221 0 min 39 W/m 12,1 C 14,1 C 9,7 km/h (2 Bft)
27.06.2016 05:48 14,1 C 88 % 1014,0 hPa 0,0 l/m 5,3 km/h (1 Bft) S-SW 205 0 min 28 W/m 12,1 C 14,1 C 9,7 km/h (2 Bft)
27.06.2016 05:51 14,1 C 89 % 1014,0 hPa 0,0 l/m 8,1 km/h (2 Bft) S-SW 200 0 min 25 W/m 12,3 C 13,1 C 16,1 km/h (3 Bft)
27.06.2016 05:54 14,1 C 89 % 1014,0 hPa 0,0 l/m 6,9 km/h (2 Bft) S-SW 192 0 min 25 W/m 12,3 C 13,8 C 12,9 km/h (3 Bft)
27.06.2016 05:57 14,1 C 89 % 1014,0 hPa 0,0 l/m 6,6 km/h (2 Bft) S 190 0 min 26 W/m 12,3 C 14,0 C 11,3 km/h (2 Bft)
27.06.2016 06:00 14,1 C 89 % 1013,9 hPa 0,0 l/m 4,7 km/h (1 Bft) S 169 0 min 26 W/m 12,3 C 14,1 C 8,0 km/h (2 Bft)
27.06.2016 06:03 14,1 C 89 % 1013,9 hPa 0,0 l/m 5,0 km/h (1 Bft) S-SW 200 0 min 30 W/m 12,3 C 14,1 C 6,4 km/h (2 Bft)
27.06.2016 06:06 14,0 C 89 % 1013,9 hPa 0,0 l/m 5,3 km/h (1 Bft) S-SW 205 0 min 23 W/m 12,2 C 14,0 C 14,5 km/h (3 Bft)
27.06.2016 06:09 14,0 C 90 % 1014,0 hPa 0,0 l/m 3,7 km/h (1 Bft) S-SO 155 0 min 21 W/m 12,4 C 14,0 C 6,4 km/h (2 Bft)
27.06.2016 06:12 13,9 C 90 % 1014,0 hPa 0,0 l/m 6,1 km/h (2 Bft) S-SW 202 0 min 16 W/m 12,3 C 13,9 C 14,5 km/h (3 Bft)
27.06.2016 06:15 13,9 C 90 % 1014,0 hPa 0,0 l/m 5,3 km/h (1 Bft) SW 227 0 min 14 W/m 12,3 C 13,9 C 12,9 km/h (3 Bft)
27.06.2016 06:18 13,9 C 90 % 1014,0 hPa 0,0 l/m 5,6 km/h (2 Bft) S-SW 211 0 min 16 W/m 12,3 C 13,9 C 8,0 km/h (2 Bft)
27.06.2016 06:21 13,9 C 90 % 1014,0 hPa 0,0 l/m 3,9 km/h (1 Bft) S-SW 209 0 min 16 W/m 12,3 C 13,9 C 9,7 km/h (2 Bft)
27.06.2016 06:24 13,8 C 90 % 1014,0 hPa 0,0 l/m 6,4 km/h (2 Bft) S 182 0 min 16 W/m 12,2 C 13,8 C 14,5 km/h (3 Bft)
27.06.2016 06:27 13,8 C 90 % 1014,0 hPa 0,0 l/m 5,4 km/h (2 Bft) SW 227 0 min 16 W/m 12,2 C 13,8 C 11,3 km/h (2 Bft)
27.06.2016 06:30 13,8 C 90 % 1014,0 hPa 0,0 l/m 5,1 km/h (1 Bft) W-SW 242 0 min 18 W/m 12,2 C 13,8 C 8,0 km/h (2 Bft)
27.06.2016 06:33 13,8 C 90 % 1014,0 hPa 0,0 l/m 5,1 km/h (1 Bft) SW 227 0 min 18 W/m 12,2 C 13,8 C 9,7 km/h (2 Bft)
27.06.2016 06:36 13,8 C 90 % 1014,0 hPa 0,0 l/m 4,8 km/h (1 Bft) SW 234 0 min 21 W/m 12,2 C 13,8 C 11,3 km/h (2 Bft)
27.06.2016 06:39 13,9 C 90 % 1014,0 hPa 0,0 l/m 6,4 km/h (2 Bft) SO 134 0 min 21 W/m 12,3 C 13,9 C 11,3 km/h (2 Bft)
27.06.2016 06:42 13,9 C 91 % 1013,9 hPa 0,0 l/m 7,6 km/h (2 Bft) S-SO 158 0 min 18 W/m 12,5 C 13,2 C 16,1 km/h (3 Bft)
27.06.2016 06:45 13,9 C 91 % 1013,9 hPa 0,0 l/m 6,8 km/h (2 Bft) S-SO 147 0 min 19 W/m 12,5 C 13,7 C 16,1 km/h (3 Bft)
27.06.2016 06:48 14,0 C 91 % 1013,9 hPa 0,0 l/m 7,7 km/h (2 Bft) S-SO 167 0 min 19 W/m 12,6 C 13,2 C 16,1 km/h (3 Bft)
27.06.2016 06:51 14,0 C 91 % 1014,0 hPa 0,0 l/m 6,6 km/h (2 Bft) S-SO 161 0 min 19 W/m 12,6 C 13,9 C 14,5 km/h (3 Bft)
27.06.2016 06:54 14,1 C 91 % 1014,0 hPa 0,0 l/m 7,8 km/h (2 Bft) S-SW 198 0 min 19 W/m 12,7 C 13,3 C 12,9 km/h (3 Bft)
27.06.2016 06:57 14,1 C 91 % 1013,9 hPa 0,0 l/m 5,9 km/h (2 Bft) S-SW 206 0 min 18 W/m 12,7 C 14,1 C 11,3 km/h (2 Bft)
27.06.2016 07:00 14,1 C 91 % 1013,9 hPa 0,0 l/m 5,2 km/h (1 Bft) S 180 0 min 19 W/m 12,7 C 14,1 C 9,7 km/h (2 Bft)
27.06.2016 07:03 14,1 C 91 % 1013,9 hPa 0,0 l/m 5,7 km/h (2 Bft) S-SO 167 0 min 19 W/m 12,7 C 14,1 C 9,7 km/h (2 Bft)
27.06.2016 07:06 14,2 C 91 % 1013,9 hPa 0,0 l/m 5,7 km/h (2 Bft) S-SW 195 0 min 19 W/m 12,8 C 14,2 C 14,5 km/h (3 Bft)
27.06.2016 07:09 14,2 C 91 % 1013,9 hPa 0,0 l/m 6,0 km/h (2 Bft) SW 223 0 min 21 W/m 12,8 C 14,2 C 11,3 km/h (2 Bft)
27.06.2016 07:12 14,3 C 91 % 1013,9 hPa 0,0 l/m 5,9 km/h (2 Bft) S 180 0 min 21 W/m 12,8 C 14,3 C 12,9 km/h (3 Bft)
27.06.2016 07:15 14,3 C 91 % 1013,9 hPa 0,0 l/m 7,3 km/h (2 Bft) S-SW 207 0 min 23 W/m 12,8 C 13,8 C 12,9 km/h (3 Bft)
27.06.2016 07:18 14,4 C 91 % 1013,9 hPa 0,0 l/m 7,3 km/h (2 Bft) S-SW 209 0 min 23 W/m 12,9 C 13,9 C 12,9 km/h (3 Bft)
27.06.2016 07:21 14,4 C 91 % 1013,9 hPa 0,0 l/m 7,2 km/h (2 Bft) SW 220 0 min 26 W/m 12,9 C 13,9 C 12,9 km/h (3 Bft)
27.06.2016 07:24 14,5 C 91 % 1013,9 hPa 0,0 l/m 6,7 km/h (2 Bft) SW 232 0 min 26 W/m 13,0 C 14,3 C 14,5 km/h (3 Bft)
27.06.2016 07:27 14,5 C 90 % 1013,9 hPa 0,0 l/m 7,6 km/h (2 Bft) S-SW 204 0 min 25 W/m 12,9 C 13,8 C 16,1 km/h (3 Bft)
27.06.2016 07:30 14,6 C 90 % 1013,9 hPa 0,0 l/m 5,6 km/h (2 Bft) S 183 0 min 25 W/m 13,0 C 14,6 C 11,3 km/h (2 Bft)
27.06.2016 07:33 14,6 C 90 % 1013,9 hPa 0,0 l/m 6,8 km/h (2 Bft) S-SO 148 0 min 23 W/m 13,0 C 14,4 C 14,5 km/h (3 Bft)
27.06.2016 07:36 14,7 C 90 % 1013,7 hPa 0,0 l/m 6,8 km/h (2 Bft) W-SW 252 0 min 21 W/m 13,1 C 14,5 C 14,5 km/h (3 Bft)
27.06.2016 07:39 14,7 C 91 % 1013,7 hPa 0,0 l/m 4,6 km/h (1 Bft) S 186 0 min 23 W/m 13,2 C 14,7 C 11,3 km/h (2 Bft)
27.06.2016 07:42 14,8 C 90 % 1013,7 hPa 0,0 l/m 7,3 km/h (2 Bft) SW 226 0 min 26 W/m 13,2 C 14,3 C 12,9 km/h (3 Bft)
27.06.2016 07:45 14,9 C 90 % 1013,7 hPa 0,0 l/m 5,6 km/h (2 Bft) S 181 0 min 30 W/m 13,3 C 14,9 C 14,5 km/h (3 Bft)
27.06.2016 07:48 14,9 C 90 % 1013,7 hPa 0,0 l/m 7,2 km/h (2 Bft) S-SO 161 0 min 39 W/m 13,3 C 14,4 C 14,5 km/h (3 Bft)
27.06.2016 07:51 15,1 C 90 % 1013,7 hPa 0,0 l/m 9,4 km/h (2 Bft) S-SO 168 0 min 49 W/m 13,5 C 13,5 C 17,7 km/h (3 Bft)
27.06.2016 07:54 15,1 C 90 % 1013,7 hPa 0,0 l/m 8,9 km/h (2 Bft) W 271 0 min 56 W/m 13,5 C 13,7 C 17,7 km/h (3 Bft)
27.06.2016 07:57 15,3 C 90 % 1013,8 hPa 0,0 l/m 9,6 km/h (2 Bft) S-SW 195 0 min 70 W/m 13,7 C 13,6 C 17,7 km/h (3 Bft)
27.06.2016 08:00 15,4 C 89 % 1013,8 hPa 0,0 l/m 7,3 km/h (2 Bft) SW 225 0 min 98 W/m 13,6 C 14,9 C 11,3 km/h (2 Bft)
27.06.2016 08:03 15,6 C 90 % 1013,7 hPa 0,0 l/m 6,8 km/h (2 Bft) W-SW 254 0 min 111 W/m 14,0 C 15,4 C 12,9 km/h (3 Bft)
27.06.2016 08:06 15,6 C 88 % 1013,7 hPa 0,0 l/m 7,2 km/h (2 Bft) S 173 0 min 123 W/m 13,6 C 15,2 C 16,1 km/h (3 Bft)
27.06.2016 08:09 15,7 C 88 % 1013,7 hPa 0,0 l/m 9,8 km/h (2 Bft) W-SW 243 0 min 81 W/m 13,7 C 14,0 C 17,7 km/h (3 Bft)
27.06.2016 08:12 15,7 C 88 % 1013,7 hPa 0,0 l/m 9,4 km/h (2 Bft) W-SW 254 0 min 62 W/m 13,7 C 14,2 C 17,7 km/h (3 Bft)
27.06.2016 08:15 15,6 C 88 % 1013,7 hPa 0,0 l/m 7,1 km/h (2 Bft) SW 233 0 min 44 W/m 13,6 C 15,2 C 11,3 km/h (2 Bft)
27.06.2016 08:18 15,4 C 88 % 1013,7 hPa 0,0 l/m 10,3 km/h (2 Bft) S-SW 207 0 min 30 W/m 13,4 C 13,4 C 22,5 km/h (4 Bft)
27.06.2016 08:21 15,3 C 88 % 1013,7 hPa 0,0 l/m 9,0 km/h (2 Bft) S-SO 161 0 min 51 W/m 13,3 C 13,9 C 17,7 km/h (3 Bft)
27.06.2016 08:24 15,2 C 88 % 1013,8 hPa 0,0 l/m 8,6 km/h (2 Bft) S 185 0 min 113 W/m 13,2 C 14,0 C 16,1 km/h (3 Bft)
27.06.2016 08:27 15,2 C 89 % 1013,8 hPa 0,0 l/m 6,2 km/h (2 Bft) SW 227 0 min 62 W/m 13,4 C 15,2 C 14,5 km/h (3 Bft)
27.06.2016 08:30 15,2 C 89 % 1013,8 hPa 0,0 l/m 8,3 km/h (2 Bft) S-SO 160 0 min 86 W/m 13,4 C 14,2 C 16,1 km/h (3 Bft)
27.06.2016 08:33 15,3 C 90 % 1013,8 hPa 0,0 l/m 7,4 km/h (2 Bft) SW 236 0 min 90 W/m 13,7 C 14,7 C 14,5 km/h (3 Bft)
27.06.2016 08:36 15,3 C 89 % 1013,8 hPa 0,0 l/m 8,8 km/h (2 Bft) W-SW 237 0 min 86 W/m 13,5 C 14,0 C 19,3 km/h (3 Bft)
27.06.2016 08:39 15,4 C 89 % 1013,7 hPa 0,0 l/m 10,3 km/h (2 Bft) W-SW 238 0 min 91 W/m 13,6 C 13,4 C 16,1 km/h (3 Bft)
27.06.2016 08:42 15,6 C 89 % 1013,7 hPa 0,0 l/m 9,8 km/h (2 Bft) SW 233 0 min 77 W/m 13,8 C 13,9 C 17,7 km/h (3 Bft)
27.06.2016 08:45 15,7 C 88 % 1013,7 hPa 0,0 l/m 8,6 km/h (2 Bft) S 180 0 min 100 W/m 13,7 C 14,5 C 16,1 km/h (3 Bft)
27.06.2016 08:48 15,9 C 88 % 1013,7 hPa 0,0 l/m 9,7 km/h (2 Bft) S 173 0 min 114 W/m 13,9 C 14,2 C 14,5 km/h (3 Bft)
27.06.2016 08:51 16,2 C 88 % 1013,7 hPa 0,0 l/m 9,2 km/h (2 Bft) S-SW 208 0 min 72 W/m 14,2 C 14,8 C 16,1 km/h (3 Bft)
27.06.2016 08:54 16,3 C 88 % 1013,7 hPa 0,0 l/m 9,8 km/h (2 Bft) S 189 0 min 81 W/m 14,3 C 14,6 C 16,1 km/h (3 Bft)
27.06.2016 08:57 16,3 C 87 % 1013,7 hPa 0,0 l/m 9,9 km/h (2 Bft) S 190 0 min 125 W/m 14,1 C 14,6 C 19,3 km/h (3 Bft)
27.06.2016 09:00 16,3 C 87 % 1013,8 hPa 0,0 l/m 9,4 km/h (2 Bft) SW 233 0 min 174 W/m 14,1 C 14,8 C 17,7 km/h (3 Bft)
27.06.2016 09:03 16,4 C 86 % 1013,9 hPa 0,0 l/m 14,4 km/h (3 Bft) SO 140 0 min 176 W/m 14,1 C 13,1 C 25,7 km/h (4 Bft)
27.06.2016 09:06 16,5 C 86 % 1013,9 hPa 0,0 l/m 14,0 km/h (3 Bft) S 174 0 min 171 W/m 14,1 C 13,3 C 22,5 km/h (4 Bft)
27.06.2016 09:09 16,6 C 85 % 1013,8 hPa 0,0 l/m 11,7 km/h (2 Bft) SW 227 0 min 160 W/m 14,1 C 14,2 C 24,1 km/h (4 Bft)
27.06.2016 09:12 16,6 C 85 % 1013,9 hPa 0,0 l/m 14,3 km/h (3 Bft) SW 233 0 min 139 W/m 14,1 C 13,3 C 22,5 km/h (4 Bft)
27.06.2016 09:15 16,5 C 86 % 1014,0 hPa 0,0 l/m 11,8 km/h (2 Bft) SW 229 0 min 149 W/m 14,1 C 14,1 C 19,3 km/h (3 Bft)
27.06.2016 09:18 16,5 C 85 % 1014,0 hPa 0,0 l/m 12,3 km/h (2 Bft) S-SW 198 0 min 163 W/m 14,0 C 13,9 C 22,5 km/h (4 Bft)
27.06.2016 09:21 16,6 C 86 % 1014,0 hPa 0,0 l/m 9,8 km/h (2 Bft) W 259 0 min 114 W/m 14,2 C 15,0 C 17,7 km/h (3 Bft)
27.06.2016 09:24 16,6 C 86 % 1014,0 hPa 0,0 l/m 11,4 km/h (2 Bft) W-SW 239 0 min 151 W/m 14,2 C 14,3 C 19,3 km/h (3 Bft)
27.06.2016 09:27 16,5 C 86 % 1014,1 hPa 0,0 l/m 13,5 km/h (3 Bft) W-SW 238 0 min 120 W/m 14,1 C 13,5 C 20,9 km/h (4 Bft)
27.06.2016 09:30 16,4 C 85 % 1014,1 hPa 0,0 l/m 13,9 km/h (3 Bft) S 186 0 min 162 W/m 13,9 C 13,2 C 22,5 km/h (4 Bft)
27.06.2016 09:33 16,3 C 85 % 1014,1 hPa 0,0 l/m 19,3 km/h (3 Bft) SW 226 0 min 137 W/m 13,8 C 11,6 C 32,2 km/h (5 Bft)
27.06.2016 09:36 16,2 C 86 % 1014,1 hPa 0,0 l/m 15,7 km/h (3 Bft) SW 219 0 min 162 W/m 13,9 C 12,4 C 22,5 km/h (4 Bft)
27.06.2016 09:39 16,2 C 87 % 1014,0 hPa 0,0 l/m 11,6 km/h (2 Bft) SW 217 0 min 146 W/m 14,0 C 13,8 C 19,3 km/h (3 Bft)
27.06.2016 09:42 16,2 C 87 % 1014,0 hPa 0,0 l/m 10,0 km/h (2 Bft) S 189 0 min 169 W/m 14,0 C 14,4 C 19,3 km/h (3 Bft)
27.06.2016 09:45 16,2 C 87 % 1014,0 hPa 0,0 l/m 13,0 km/h (3 Bft) SW 225 0 min 186 W/m 14,0 C 13,3 C 24,1 km/h (4 Bft)
27.06.2016 09:48 16,3 C 87 % 1014,0 hPa 0,0 l/m 8,5 km/h (2 Bft) S-SW 213 0 min 158 W/m 14,1 C 15,2 C 14,5 km/h (3 Bft)
27.06.2016 09:51 16,3 C 86 % 1014,0 hPa 0,0 l/m 13,6 km/h (3 Bft) W-SW 240 0 min 162 W/m 14,0 C 13,2 C 20,9 km/h (4 Bft)
27.06.2016 09:54 16,3 C 86 % 1014,0 hPa 0,0 l/m 13,5 km/h (3 Bft) S-SW 202 0 min 172 W/m 14,0 C 13,2 C 20,9 km/h (4 Bft)
27.06.2016 09:57 16,3 C 86 % 1013,9 hPa 0,0 l/m 16,9 km/h (3 Bft) S 188 0 min 155 W/m 14,0 C 12,2 C 27,4 km/h (5 Bft)
27.06.2016 10:00 16,3 C 86 % 1014,0 hPa 0,0 l/m 15,4 km/h (3 Bft) W-SW 241 0 min 160 W/m 14,0 C 12,6 C 27,4 km/h (5 Bft)
27.06.2016 10:03 16,3 C 86 % 1014,0 hPa 0,0 l/m 15,0 km/h (3 Bft) SW 229 0 min 176 W/m 14,0 C 12,8 C 29,0 km/h (5 Bft)
27.06.2016 10:06 16,3 C 86 % 1014,0 hPa 0,0 l/m 15,2 km/h (3 Bft) SW 227 0 min 237 W/m 14,0 C 12,7 C 29,0 km/h (5 Bft)
27.06.2016 10:09 16,6 C 86 % 1014,0 hPa 0,0 l/m 13,0 km/h (3 Bft) S-SO 155 0 min 139 W/m 14,2 C 13,8 C 24,1 km/h (4 Bft)
27.06.2016 10:12 16,6 C 85 % 1014,1 hPa 0,0 l/m 11,6 km/h (2 Bft) S 182 0 min 134 W/m 14,1 C 14,3 C 17,7 km/h (3 Bft)
27.06.2016 10:15 16,6 C 86 % 1014,1 hPa 0,0 l/m 13,1 km/h (3 Bft) W-SW 237 0 min 123 W/m 14,2 C 13,7 C 24,1 km/h (4 Bft)
27.06.2016 10:18 16,4 C 85 % 1014,1 hPa 0,0 l/m 15,9 km/h (3 Bft) S 187 0 min 141 W/m 13,9 C 12,6 C 24,1 km/h (4 Bft)
27.06.2016 10:21 16,4 C 85 % 1014,0 hPa 0,0 l/m 15,8 km/h (3 Bft) S-SW 209 0 min 153 W/m 13,9 C 12,7 C 27,4 km/h (5 Bft)
27.06.2016 10:24 16,3 C 85 % 1014,0 hPa 0,0 l/m 13,6 km/h (3 Bft) W-SW 250 0 min 105 W/m 13,8 C 13,2 C 22,5 km/h (4 Bft)
27.06.2016 10:27 16,3 C 86 % 1014,0 hPa 0,0 l/m 11,0 km/h (2 Bft) S-SW 194 0 min 148 W/m 14,0 C 14,1 C 16,1 km/h (3 Bft)
27.06.2016 10:30 16,4 C 86 % 1014,1 hPa 0,0 l/m 10,3 km/h (2 Bft) S-SW 211 0 min 128 W/m 14,1 C 14,5 C 17,7 km/h (3 Bft)
27.06.2016 10:33 16,4 C 86 % 1014,0 hPa 0,0 l/m 10,1 km/h (2 Bft) W-SW 242 0 min 155 W/m 14,1 C 14,6 C 17,7 km/h (3 Bft)
27.06.2016 10:36 16,5 C 86 % 1014,1 hPa 0,0 l/m 10,8 km/h (2 Bft) S-SW 198 0 min 193 W/m 14,1 C 14,5 C 19,3 km/h (3 Bft)
27.06.2016 10:39 16,6 C 86 % 1014,1 hPa 0,0 l/m 12,0 km/h (2 Bft) S 180 0 min 237 W/m 14,2 C 14,1 C 22,5 km/h (4 Bft)
27.06.2016 10:42 16,7 C 85 % 1013,9 hPa 0,0 l/m 12,8 km/h (3 Bft) SO 144 0 min 190 W/m 14,2 C 14,0 C 24,1 km/h (4 Bft)
27.06.2016 10:45 16,8 C 85 % 1014,0 hPa 0,0 l/m 13,2 km/h (3 Bft) SW 223 0 min 220 W/m 14,3 C 13,9 C 20,9 km/h (4 Bft)
27.06.2016 10:48 17,2 C 86 % 1014,0 hPa 0,0 l/m 13,0 km/h (3 Bft) W-SW 252 0 min 253 W/m 14,8 C 14,5 C 22,5 km/h (4 Bft)
27.06.2016 10:51 17,3 C 83 % 1014,0 hPa 0,0 l/m 14,1 km/h (3 Bft) S-SW 213 0 min 253 W/m 14,4 C 14,2 C 24,1 km/h (4 Bft)
27.06.2016 10:54 17,4 C 83 % 1014,0 hPa 0,0 l/m 13,3 km/h (3 Bft) S 180 3 min 575 W/m 14,5 C 14,6 C 19,3 km/h (3 Bft)
27.06.2016 10:57 17,8 C 82 % 1014,0 hPa 0,0 l/m 12,8 km/h (3 Bft) SW 232 3 min 559 W/m 14,7 C 15,2 C 24,1 km/h (4 Bft)
27.06.2016 11:00 17,8 C 82 % 1013,9 hPa 0,0 l/m 14,9 km/h (3 Bft) SW 220 3 min 540 W/m 14,7 C 14,6 C 24,1 km/h (4 Bft)
27.06.2016 11:03 17,8 C 81 % 1014,0 hPa 0,0 l/m 14,5 km/h (3 Bft) S-SW 207 3 min 492 W/m 14,5 C 14,7 C 24,1 km/h (4 Bft)
27.06.2016 11:06 17,8 C 81 % 1013,9 hPa 0,0 l/m 12,2 km/h (2 Bft) S 174 0 min 211 W/m 14,5 C 15,4 C 22,5 km/h (4 Bft)
27.06.2016 11:09 17,9 C 81 % 1014,0 hPa 0,0 l/m 9,9 km/h (2 Bft) S-SO 167 0 min 267 W/m 14,6 C 16,4 C 20,9 km/h (4 Bft)
27.06.2016 11:12 17,9 C 79 % 1014,0 hPa 0,0 l/m 15,7 km/h (3 Bft) S-SO 150 0 min 264 W/m 14,2 C 14,5 C 25,7 km/h (4 Bft)
27.06.2016 11:15 17,8 C 80 % 1014,1 hPa 0,0 l/m 15,1 km/h (3 Bft) SW 227 0 min 272 W/m 14,3 C 14,6 C 22,5 km/h (4 Bft)
27.06.2016 11:18 17,6 C 81 % 1014,1 hPa 0,0 l/m 16,5 km/h (3 Bft) SW 221 0 min 248 W/m 14,3 C 13,9 C 27,4 km/h (5 Bft)
27.06.2016 11:21 17,4 C 81 % 1014,2 hPa 0,0 l/m 16,5 km/h (3 Bft) W-SW 241 0 min 188 W/m 14,1 C 13,7 C 29,0 km/h (5 Bft)
27.06.2016 11:24 17,4 C 82 % 1014,2 hPa 0,0 l/m 13,6 km/h (3 Bft) SW 225 0 min 127 W/m 14,3 C 14,5 C 25,7 km/h (4 Bft)
27.06.2016 11:27 17,3 C 82 % 1014,2 hPa 0,0 l/m 11,8 km/h (2 Bft) S-SO 166 0 min 113 W/m 14,2 C 15,0 C 20,9 km/h (4 Bft)
27.06.2016 11:30 17,2 C 83 % 1014,2 hPa 0,0 l/m 12,5 km/h (2 Bft) S-SW 211 0 min 279 W/m 14,3 C 14,6 C 22,5 km/h (4 Bft)
27.06.2016 11:33 17,2 C 83 % 1014,2 hPa 0,0 l/m 12,2 km/h (2 Bft) S-SW 200 0 min 148 W/m 14,3 C 14,7 C 20,9 km/h (4 Bft)
27.06.2016 11:36 17,2 C 83 % 1014,2 hPa 0,0 l/m 12,8 km/h (3 Bft) SW 222 0 min 158 W/m 14,3 C 14,5 C 22,5 km/h (4 Bft)
27.06.2016 11:39 17,1 C 82 % 1014,1 hPa 0,0 l/m 17,4 km/h (3 Bft) W-SW 250 0 min 188 W/m 14,0 C 13,1 C 25,7 km/h (4 Bft)
27.06.2016 11:42 17,1 C 82 % 1014,2 hPa 0,0 l/m 16,5 km/h (3 Bft) S-SW 211 0 min 181 W/m 14,0 C 13,3 C 25,7 km/h (4 Bft)
27.06.2016 11:45 17,0 C 83 % 1014,1 hPa 0,0 l/m 15,6 km/h (3 Bft) S-SW 207 0 min 130 W/m 14,1 C 13,4 C 25,7 km/h (4 Bft)
27.06.2016 11:48 17,0 C 83 % 1014,1 hPa 0,0 l/m 15,3 km/h (3 Bft) S-SW 208 0 min 123 W/m 14,1 C 13,5 C 29,0 km/h (5 Bft)
27.06.2016 11:51 17,2 C 84 % 1014,0 hPa 0,0 l/m 10,7 km/h (2 Bft) W-SW 242 0 min 123 W/m 14,5 C 15,3 C 19,3 km/h (3 Bft)
27.06.2016 11:54 17,7 C 83 % 1014,0 hPa 0,0 l/m 13,2 km/h (3 Bft) S-SW 199 3 min 686 W/m 14,8 C 15,0 C 22,5 km/h (4 Bft)
27.06.2016 11:57 18,3 C 82 % 1014,0 hPa 0,0 l/m 11,9 km/h (2 Bft) SW 236 3 min 800 W/m 15,2 C 16,1 C 19,3 km/h (3 Bft)
27.06.2016 12:00 18,7 C 80 % 1013,9 hPa 0,0 l/m 13,7 km/h (3 Bft) S 189 3 min 830 W/m 15,2 C 16,0 C 24,1 km/h (4 Bft)
27.06.2016 12:03 18,9 C 78 % 1013,9 hPa 0,0 l/m 13,2 km/h (3 Bft) S 174 3 min 791 W/m 15,0 C 16,4 C 25,7 km/h (4 Bft)
27.06.2016 12:06 18,7 C 77 % 1013,9 hPa 0,0 l/m 14,2 km/h (3 Bft) S-SW 213 0 min 274 W/m 14,6 C 15,9 C 29,0 km/h (5 Bft)
27.06.2016 12:09 18,8 C 77 % 1013,9 hPa 0,0 l/m 13,0 km/h (3 Bft) SW 226 0 min 255 W/m 14,7 C 16,3 C 22,5 km/h (4 Bft)
27.06.2016 12:12 18,6 C 77 % 1013,9 hPa 0,0 l/m 17,6 km/h (3 Bft) SW 215 0 min 417 W/m 14,5 C 14,9 C 27,4 km/h (5 Bft)
27.06.2016 12:15 18,8 C 78 % 1013,9 hPa 0,0 l/m 10,4 km/h (2 Bft) SW 218 0 min 315 W/m 14,9 C 17,2 C 19,3 km/h (3 Bft)
27.06.2016 12:18 18,7 C 75 % 1013,9 hPa 0,0 l/m 18,4 km/h (3 Bft) S-SW 213 0 min 346 W/m 14,2 C 14,9 C 35,4 km/h (5 Bft)
27.06.2016 12:21 18,4 C 77 % 1013,9 hPa 0,0 l/m 18,8 km/h (3 Bft) S 178 0 min 265 W/m 14,3 C 14,4 C 27,4 km/h (5 Bft)
27.06.2016 12:24 18,3 C 78 % 1013,9 hPa 0,0 l/m 13,3 km/h (3 Bft) S 177 0 min 306 W/m 14,4 C 15,7 C 24,1 km/h (4 Bft)
27.06.2016 12:27 18,1 C 78 % 1013,9 hPa 0,0 l/m 21,4 km/h (4 Bft) SW 215 0 min 232 W/m 14,2 C 13,5 C 30,6 km/h (5 Bft)
27.06.2016 12:30 18,1 C 79 % 1013,8 hPa 0,0 l/m 16,2 km/h (3 Bft) S-SW 192 0 min 369 W/m 14,4 C 14,6 C 25,7 km/h (4 Bft)
27.06.2016 12:33 18,2 C 78 % 1013,9 hPa 0,0 l/m 13,6 km/h (3 Bft) S-SW 194 0 min 283 W/m 14,3 C 15,5 C 20,9 km/h (4 Bft)
27.06.2016 12:36 18,2 C 78 % 1013,8 hPa 0,0 l/m 17,1 km/h (3 Bft) S 169 0 min 306 W/m 14,3 C 14,5 C 25,7 km/h (4 Bft)
27.06.2016 12:39 18,2 C 78 % 1013,7 hPa 0,0 l/m 14,0 km/h (3 Bft) SW 218 0 min 309 W/m 14,3 C 15,3 C 19,3 km/h (3 Bft)
27.06.2016 12:42 18,2 C 77 % 1013,8 hPa 0,0 l/m 18,0 km/h (3 Bft) W 273 0 min 359 W/m 14,1 C 14,3 C 32,2 km/h (5 Bft)
27.06.2016 12:45 18,3 C 78 % 1013,8 hPa 0,0 l/m 14,3 km/h (3 Bft) S 178 0 min 415 W/m 14,4 C 15,4 C 30,6 km/h (5 Bft)
27.06.2016 12:48 18,6 C 77 % 1013,7 hPa 0,0 l/m 16,9 km/h (3 Bft) W-SW 240 0 min 343 W/m 14,5 C 15,1 C 27,4 km/h (5 Bft)
27.06.2016 12:51 18,6 C 76 % 1013,6 hPa 0,0 l/m 14,1 km/h (3 Bft) S-SO 163 0 min 278 W/m 14,3 C 15,8 C 22,5 km/h (4 Bft)
27.06.2016 12:54 18,3 C 76 % 1013,6 hPa 0,0 l/m 15,6 km/h (3 Bft) S-SW 209 0 min 308 W/m 14,0 C 15,0 C 22,5 km/h (4 Bft)
27.06.2016 12:57 18,3 C 76 % 1013,8 hPa 0,0 l/m 17,8 km/h (3 Bft) S-SW 206 0 min 306 W/m 14,0 C 14,5 C 32,2 km/h (5 Bft)
27.06.2016 13:00 18,3 C 77 % 1013,7 hPa 0,0 l/m 17,7 km/h (3 Bft) SW 221 0 min 230 W/m 14,2 C 14,5 C 29,0 km/h (5 Bft)
27.06.2016 13:03 18,2 C 77 % 1013,7 hPa 0,0 l/m 17,7 km/h (3 Bft) SW 216 0 min 287 W/m 14,1 C 14,4 C 30,6 km/h (5 Bft)
27.06.2016 13:06 18,3 C 78 % 1013,6 hPa 0,0 l/m 12,2 km/h (2 Bft) S 185 0 min 315 W/m 14,4 C 16,0 C 24,1 km/h (4 Bft)
27.06.2016 13:09 18,4 C 78 % 1013,7 hPa 0,0 l/m 15,5 km/h (3 Bft) SW 225 0 min 304 W/m 14,5 C 15,2 C 27,4 km/h (5 Bft)
27.06.2016 13:12 18,4 C 77 % 1013,7 hPa 0,0 l/m 15,5 km/h (3 Bft) S-SW 211 0 min 250 W/m 14,3 C 15,2 C 29,0 km/h (5 Bft)
27.06.2016 13:15 18,3 C 75 % 1013,7 hPa 0,0 l/m 17,0 km/h (3 Bft) S-SW 204 0 min 237 W/m 13,8 C 14,7 C 32,2 km/h (5 Bft)
27.06.2016 13:18 18,3 C 76 % 1013,7 hPa 0,0 l/m 16,2 km/h (3 Bft) SW 215 0 min 220 W/m 14,0 C 14,9 C 30,6 km/h (5 Bft)
27.06.2016 13:21 18,2 C 77 % 1013,6 hPa 0,0 l/m 13,9 km/h (3 Bft) S 180 0 min 216 W/m 14,1 C 15,4 C 22,5 km/h (4 Bft)
27.06.2016 13:24 18,3 C 78 % 1013,6 hPa 0,0 l/m 10,1 km/h (2 Bft) S 191 0 min 204 W/m 14,4 C 16,7 C 16,1 km/h (3 Bft)
27.06.2016 13:27 18,3 C 78 % 1013,6 hPa 0,0 l/m 11,4 km/h (2 Bft) S-SW 197 0 min 206 W/m 14,4 C 16,3 C 27,4 km/h (5 Bft)
27.06.2016 13:30 18,2 C 77 % 1013,6 hPa 0,0 l/m 10,8 km/h (2 Bft) S 188 0 min 188 W/m 14,1 C 16,4 C 19,3 km/h (3 Bft)
27.06.2016 13:33 18,2 C 76 % 1013,5 hPa 0,0 l/m 14,2 km/h (3 Bft) W 277 0 min 156 W/m 13,9 C 15,3 C 20,9 km/h (4 Bft)
27.06.2016 13:36 18,2 C 77 % 1013,5 hPa 0,0 l/m 8,5 km/h (2 Bft) S-SO 150 0 min 137 W/m 14,1 C 17,2 C 17,7 km/h (3 Bft)
27.06.2016 13:39 18,1 C 77 % 1013,6 hPa 0,0 l/m 13,6 km/h (3 Bft) W-SW 250 0 min 111 W/m 14,0 C 15,3 C 32,2 km/h (5 Bft)
27.06.2016 13:42 18,1 C 77 % 1013,6 hPa 0,0 l/m 13,4 km/h (3 Bft) S-SW 211 0 min 109 W/m 14,0 C 15,4 C 22,5 km/h (4 Bft)
27.06.2016 13:45 17,9 C 77 % 1013,6 hPa 0,0 l/m 15,9 km/h (3 Bft) SW 229 0 min 123 W/m 13,8 C 14,5 C 27,4 km/h (5 Bft)
27.06.2016 13:48 17,9 C 77 % 1013,5 hPa 0,0 l/m 15,6 km/h (3 Bft) S-SW 211 0 min 149 W/m 13,8 C 14,5 C 29,0 km/h (5 Bft)
27.06.2016 13:51 17,9 C 77 % 1013,5 hPa 0,0 l/m 15,2 km/h (3 Bft) S-SW 206 0 min 186 W/m 13,8 C 14,7 C 24,1 km/h (4 Bft)
27.06.2016 13:54 17,9 C 78 % 1013,4 hPa 0,0 l/m 11,4 km/h (2 Bft) S-SW 213 0 min 179 W/m 14,0 C 15,8 C 20,9 km/h (4 Bft)
27.06.2016 13:57 18,1 C 79 % 1013,4 hPa 0,0 l/m 12,4 km/h (2 Bft) SW 226 0 min 216 W/m 14,4 C 15,7 C 19,3 km/h (3 Bft)
27.06.2016 14:00 18,1 C 77 % 1013,4 hPa 0,0 l/m 17,8 km/h (3 Bft) S 179 0 min 199 W/m 14,0 C 14,2 C 30,6 km/h (5 Bft)
27.06.2016 14:03 18,1 C 76 % 1013,5 hPa 0,0 l/m 15,4 km/h (3 Bft) S-SO 166 0 min 223 W/m 13,8 C 14,8 C 25,7 km/h (4 Bft)
27.06.2016 14:06 18,2 C 76 % 1013,4 hPa 0,0 l/m 15,3 km/h (3 Bft) SW 225 0 min 262 W/m 13,9 C 15,0 C 29,0 km/h (5 Bft)
27.06.2016 14:09 18,2 C 76 % 1013,4 hPa 0,0 l/m 13,5 km/h (3 Bft) S-SW 198 0 min 190 W/m 13,9 C 15,5 C 24,1 km/h (4 Bft)
27.06.2016 14:12 18,2 C 76 % 1013,3 hPa 0,0 l/m 10,0 km/h (2 Bft) S-SW 203 0 min 229 W/m 13,9 C 16,7 C 19,3 km/h (3 Bft)
27.06.2016 14:15 18,3 C 76 % 1013,4 hPa 0,0 l/m 11,2 km/h (2 Bft) S-SW 207 0 min 255 W/m 14,0 C 16,3 C 20,9 km/h (4 Bft)
27.06.2016 14:18 18,4 C 75 % 1013,4 hPa 0,0 l/m 13,4 km/h (3 Bft) S 173 0 min 313 W/m 13,9 C 15,8 C 27,4 km/h (5 Bft)
27.06.2016 14:21 18,6 C 75 % 1013,3 hPa 0,0 l/m 17,6 km/h (3 Bft) S-SW 210 0 min 332 W/m 14,1 C 14,9 C 27,4 km/h (5 Bft)
27.06.2016 14:24 18,6 C 74 % 1013,3 hPa 0,0 l/m 13,6 km/h (3 Bft) S 188 0 min 318 W/m 13,9 C 15,9 C 24,1 km/h (4 Bft)
27.06.2016 14:27 18,7 C 75 % 1013,3 hPa 0,0 l/m 13,0 km/h (3 Bft) SW 214 0 min 288 W/m 14,2 C 16,2 C 22,5 km/h (4 Bft)
27.06.2016 14:30 18,7 C 74 % 1013,3 hPa 0,0 l/m 14,9 km/h (3 Bft) SW 229 0 min 257 W/m 14,0 C 15,7 C 29,0 km/h (5 Bft)
27.06.2016 14:33 18,8 C 75 % 1013,4 hPa 0,0 l/m 14,3 km/h (3 Bft) S-SW 207 0 min 257 W/m 14,3 C 16,0 C 27,4 km/h (5 Bft)
27.06.2016 14:36 18,9 C 73 % 1013,3 hPa 0,0 l/m 16,9 km/h (3 Bft) SW 221 0 min 211 W/m 13,9 C 15,5 C 22,5 km/h (4 Bft)
27.06.2016 14:39 18,8 C 73 % 1013,4 hPa 0,0 l/m 12,4 km/h (2 Bft) SW 233 0 min 165 W/m 13,9 C 16,5 C 20,9 km/h (4 Bft)
27.06.2016 14:42 18,8 C 75 % 1013,4 hPa 0,0 l/m 11,9 km/h (2 Bft) SW 234 0 min 171 W/m 14,3 C 16,7 C 19,3 km/h (3 Bft)
27.06.2016 14:45 18,7 C 74 % 1013,4 hPa 0,0 l/m 16,7 km/h (3 Bft) W-SW 240 0 min 139 W/m 14,0 C 15,3 C 25,7 km/h (4 Bft)
27.06.2016 14:48 18,5 C 76 % 1013,4 hPa 0,0 l/m 17,8 km/h (3 Bft) SW 236 0 min 146 W/m 14,2 C 14,7 C 27,4 km/h (5 Bft)
27.06.2016 14:51 18,3 C 78 % 1013,5 hPa 0,0 l/m 12,4 km/h (2 Bft) S 170 0 min 135 W/m 14,4 C 15,9 C 19,3 km/h (3 Bft)
27.06.2016 14:54 18,1 C 81 % 1013,5 hPa 0,0 l/m 13,1 km/h (3 Bft) S 182 0 min 172 W/m 14,8 C 15,5 C 27,4 km/h (5 Bft)
27.06.2016 14:57 17,9 C 82 % 1013,4 hPa 0,0 l/m 11,0 km/h (2 Bft) SW 236 0 min 163 W/m 14,8 C 16,0 C 19,3 km/h (3 Bft)
27.06.2016 15:00 17,8 C 82 % 1013,4 hPa 0,0 l/m 11,2 km/h (2 Bft) S-SW 201 0 min 163 W/m 14,7 C 15,8 C 19,3 km/h (3 Bft)
27.06.2016 15:03 17,8 C 82 % 1013,4 hPa 0,0 l/m 10,0 km/h (2 Bft) SW 217 0 min 88 W/m 14,7 C 16,2 C 16,1 km/h (3 Bft)
27.06.2016 15:06 17,8 C 82 % 1013,4 hPa 0,0 l/m 13,8 km/h (3 Bft) S 181 0 min 100 W/m 14,7 C 14,9 C 22,5 km/h (4 Bft)
27.06.2016 15:09 17,7 C 82 % 1013,4 hPa 0,0 l/m 13,7 km/h (3 Bft) S-SW 207 0 min 93 W/m 14,6 C 14,8 C 20,9 km/h (4 Bft)
27.06.2016 15:12 17,7 C 81 % 1013,4 hPa 0,0 l/m 14,7 km/h (3 Bft) SW 234 0 min 72 W/m 14,4 C 14,5 C 25,7 km/h (4 Bft)
27.06.2016 15:15 17,8 C 81 % 1013,4 hPa 0,0 l/m 14,6 km/h (3 Bft) SW 216 0 min 56 W/m 14,5 C 14,7 C 22,5 km/h (4 Bft)
27.06.2016 15:18 17,8 C 81 % 1013,4 hPa 0,0 l/m 10,8 km/h (2 Bft) S-SW 199 0 min 46 W/m 14,5 C 15,9 C 16,1 km/h (3 Bft)
27.06.2016 15:21 17,7 C 81 % 1013,4 hPa 0,0 l/m 8,7 km/h (2 Bft) SW 218 0 min 54 W/m 14,4 C 16,6 C 19,3 km/h (3 Bft)
27.06.2016 15:24 17,7 C 81 % 1013,3 hPa 0,0 l/m 11,1 km/h (2 Bft) S 173 0 min 56 W/m 14,4 C 15,7 C 22,5 km/h (4 Bft)
27.06.2016 15:27 17,7 C 81 % 1013,4 hPa 0,0 l/m 14,1 km/h (3 Bft) S 186 0 min 63 W/m 14,4 C 14,7 C 25,7 km/h (4 Bft)
27.06.2016 15:30 17,7 C 81 % 1013,4 hPa 0,0 l/m 11,1 km/h (2 Bft) SW 227 0 min 70 W/m 14,4 C 15,7 C 16,1 km/h (3 Bft)
27.06.2016 15:33 17,7 C 82 % 1013,4 hPa 0,0 l/m 10,9 km/h (2 Bft) SW 227 0 min 74 W/m 14,6 C 15,8 C 17,7 km/h (3 Bft)
27.06.2016 15:36 17,7 C 83 % 1013,4 hPa 0,0 l/m 14,3 km/h (3 Bft) S-SW 208 0 min 49 W/m 14,8 C 14,7 C 24,1 km/h (4 Bft)
27.06.2016 15:39 17,6 C 84 % 1013,5 hPa 0,0 l/m 13,5 km/h (3 Bft) SW 229 0 min 51 W/m 14,9 C 14,8 C 20,9 km/h (4 Bft)
27.06.2016 15:42 17,4 C 84 % 1013,5 hPa 0,0 l/m 14,2 km/h (3 Bft) S-SW 204 0 min 35 W/m 14,7 C 14,3 C 22,5 km/h (4 Bft)
27.06.2016 15:45 17,3 C 85 % 1013,5 hPa 0,0 l/m 14,3 km/h (3 Bft) W-SW 241 0 min 30 W/m 14,8 C 14,2 C 27,4 km/h (5 Bft)
27.06.2016 15:48 17,2 C 86 % 1013,5 hPa 0,2 l/m 15,0 km/h (3 Bft) SW 235 0 min 51 W/m 14,8 C 13,9 C 24,1 km/h (4 Bft)
27.06.2016 15:51 17,0 C 87 % 1013,6 hPa 0,0 l/m 15,7 km/h (3 Bft) S-SW 202 0 min 98 W/m 14,8 C 13,4 C 25,7 km/h (4 Bft)
27.06.2016 15:54 16,8 C 88 % 1013,5 hPa 0,2 l/m 17,6 km/h (3 Bft) SW 223 0 min 100 W/m 14,8 C 12,7 C 24,1 km/h (4 Bft)
27.06.2016 15:57 16,7 C 89 % 1013,5 hPa 0,0 l/m 17,3 km/h (3 Bft) SW 214 0 min 107 W/m 14,9 C 12,6 C 27,4 km/h (5 Bft)
27.06.2016 16:00 16,7 C 90 % 1013,5 hPa 0,2 l/m 12,6 km/h (3 Bft) SW 219 0 min 86 W/m 15,0 C 14,0 C 20,9 km/h (4 Bft)
27.06.2016 16:03 16,6 C 90 % 1013,6 hPa 0,0 l/m 13,4 km/h (3 Bft) SW 221 0 min 69 W/m 15,0 C 13,6 C 20,9 km/h (4 Bft)
27.06.2016 16:06 16,4 C 91 % 1013,6 hPa 0,2 l/m 14,8 km/h (3 Bft) S 191 0 min 65 W/m 14,9 C 12,9 C 25,7 km/h (4 Bft)
27.06.2016 16:09 16,4 C 91 % 1013,6 hPa 0,2 l/m 20,2 km/h (4 Bft) S-SW 213 0 min 65 W/m 14,9 C 11,5 C 32,2 km/h (5 Bft)
27.06.2016 16:12 16,3 C 91 % 1013,7 hPa 0,2 l/m 14,9 km/h (3 Bft) S-SW 213 0 min 69 W/m 14,8 C 12,8 C 25,7 km/h (4 Bft)
27.06.2016 16:15 16,2 C 92 % 1013,7 hPa 0,2 l/m 13,8 km/h (3 Bft) SW 232 0 min 63 W/m 14,9 C 13,0 C 20,9 km/h (4 Bft)
27.06.2016 16:18 16,1 C 92 % 1013,6 hPa 0,2 l/m 14,5 km/h (3 Bft) SW 225 0 min 62 W/m 14,8 C 12,7 C 24,1 km/h (4 Bft)
27.06.2016 16:21 16,1 C 93 % 1013,7 hPa 0,2 l/m 14,0 km/h (3 Bft) W-SW 237 0 min 72 W/m 15,0 C 12,8 C 22,5 km/h (4 Bft)
27.06.2016 16:24 16,1 C 93 % 1013,7 hPa 0,2 l/m 15,2 km/h (3 Bft) SW 217 0 min 62 W/m 15,0 C 12,5 C 24,1 km/h (4 Bft)
27.06.2016 16:27 16,0 C 93 % 1013,7 hPa 0,2 l/m 14,2 km/h (3 Bft) SW 225 0 min 83 W/m 14,9 C 12,7 C 20,9 km/h (4 Bft)
27.06.2016 16:30 16,1 C 93 % 1013,7 hPa 0,0 l/m 12,4 km/h (2 Bft) SW 228 0 min 53 W/m 15,0 C 13,4 C 19,3 km/h (3 Bft)
27.06.2016 16:33 16,1 C 94 % 1013,7 hPa 0,2 l/m 12,6 km/h (3 Bft) SW 225 0 min 79 W/m 15,1 C 13,3 C 22,5 km/h (4 Bft)
27.06.2016 16:36 16,1 C 94 % 1013,7 hPa 0,0 l/m 16,1 km/h (3 Bft) S-SW 207 0 min 54 W/m 15,1 C 12,2 C 25,7 km/h (4 Bft)
27.06.2016 16:39 16,1 C 94 % 1013,7 hPa 0,2 l/m 16,7 km/h (3 Bft) W-SW 252 0 min 53 W/m 15,1 C 12,0 C 29,0 km/h (5 Bft)
27.06.2016 16:42 16,0 C 94 % 1013,6 hPa 0,0 l/m 14,4 km/h (3 Bft) SW 223 0 min 54 W/m 15,0 C 12,6 C 24,1 km/h (4 Bft)
27.06.2016 16:45 16,0 C 94 % 1013,7 hPa 0,0 l/m 10,9 km/h (2 Bft) SW 228 0 min 42 W/m 15,0 C 13,8 C 17,7 km/h (3 Bft)
27.06.2016 16:48 15,9 C 94 % 1013,7 hPa 0,0 l/m 13,8 km/h (3 Bft) SW 220 0 min 35 W/m 14,9 C 12,7 C 20,9 km/h (4 Bft)
27.06.2016 16:51 15,9 C 94 % 1013,7 hPa 0,0 l/m 9,1 km/h (2 Bft) SW 234 0 min 56 W/m 14,9 C 14,5 C 14,5 km/h (3 Bft)
27.06.2016 16:54 15,9 C 94 % 1013,7 hPa 0,0 l/m 10,0 km/h (2 Bft) S-SW 213 0 min 62 W/m 14,9 C 14,1 C 17,7 km/h (3 Bft)
27.06.2016 16:57 15,9 C 94 % 1013,7 hPa 0,0 l/m 10,6 km/h (2 Bft) SW 229 0 min 54 W/m 14,9 C 13,9 C 19,3 km/h (3 Bft)
27.06.2016 17:00 16,0 C 95 % 1013,8 hPa 0,0 l/m 10,3 km/h (2 Bft) SW 229 0 min 53 W/m 15,2 C 14,1 C 19,3 km/h (3 Bft)
27.06.2016 17:03 16,0 C 95 % 1013,8 hPa 0,0 l/m 9,7 km/h (2 Bft) S-SW 192 0 min 51 W/m 15,2 C 14,4 C 20,9 km/h (4 Bft)
27.06.2016 17:06 16,0 C 95 % 1013,7 hPa 0,0 l/m 12,2 km/h (2 Bft) W-SW 244 0 min 46 W/m 15,2 C 13,3 C 22,5 km/h (4 Bft)
27.06.2016 17:09 16,1 C 95 % 1013,7 hPa 0,0 l/m 12,5 km/h (2 Bft) S-SW 205 0 min 76 W/m 15,3 C 13,4 C 22,5 km/h (4 Bft)
27.06.2016 17:12 16,1 C 95 % 1013,7 hPa 0,2 l/m 8,8 km/h (2 Bft) SW 226 0 min 74 W/m 15,3 C 14,9 C 17,7 km/h (3 Bft)
27.06.2016 17:15 16,2 C 95 % 1013,7 hPa 0,0 l/m 9,5 km/h (2 Bft) S-SW 205 0 min 51 W/m 15,4 C 14,7 C 20,9 km/h (4 Bft)
27.06.2016 17:18 16,1 C 95 % 1013,7 hPa 0,0 l/m 10,7 km/h (2 Bft) SW 232 0 min 47 W/m 15,3 C 14,0 C 17,7 km/h (3 Bft)
27.06.2016 17:21 16,1 C 95 % 1013,8 hPa 0,0 l/m 12,5 km/h (2 Bft) S-SW 201 0 min 49 W/m 15,3 C 13,4 C 24,1 km/h (4 Bft)
27.06.2016 17:24 16,1 C 95 % 1013,8 hPa 0,0 l/m 17,4 km/h (3 Bft) SW 215 0 min 51 W/m 15,3 C 11,8 C 29,0 km/h (5 Bft)
27.06.2016 17:27 16,1 C 95 % 1013,8 hPa 0,0 l/m 17,2 km/h (3 Bft) SW 228 0 min 37 W/m 15,3 C 11,9 C 25,7 km/h (4 Bft)
27.06.2016 17:30 16,1 C 95 % 1013,8 hPa 0,0 l/m 15,5 km/h (3 Bft) SW 221 0 min 23 W/m 15,3 C 12,4 C 24,1 km/h (4 Bft)
27.06.2016 17:33 16,1 C 95 % 1013,8 hPa 0,0 l/m 13,2 km/h (3 Bft) S-SW 198 0 min 21 W/m 15,3 C 13,1 C 19,3 km/h (3 Bft)
27.06.2016 17:36 16,1 C 95 % 1013,9 hPa 0,0 l/m 18,0 km/h (3 Bft) SW 215 0 min 32 W/m 15,3 C 11,7 C 29,0 km/h (5 Bft)
27.06.2016 17:39 16,0 C 95 % 1013,9 hPa 0,0 l/m 18,3 km/h (3 Bft) W-SW 244 0 min 53 W/m 15,2 C 11,5 C 29,0 km/h (5 Bft)
27.06.2016 17:42 16,1 C 95 % 1013,9 hPa 0,0 l/m 18,5 km/h (3 Bft) S-SW 205 0 min 70 W/m 15,3 C 11,5 C 25,7 km/h (4 Bft)
27.06.2016 17:45 16,1 C 95 % 1013,9 hPa 0,0 l/m 15,5 km/h (3 Bft) W-SW 246 0 min 77 W/m 15,3 C 12,4 C 22,5 km/h (4 Bft)
27.06.2016 17:48 16,1 C 95 % 1013,9 hPa 0,0 l/m 13,6 km/h (3 Bft) SW 228 0 min 49 W/m 15,3 C 13,0 C 20,9 km/h (4 Bft)
27.06.2016 17:51 16,1 C 95 % 1013,8 hPa 0,0 l/m 13,2 km/h (3 Bft) S-SW 202 0 min 83 W/m 15,3 C 13,1 C 20,9 km/h (4 Bft)
27.06.2016 17:54 16,0 C 94 % 1013,8 hPa 0,0 l/m 18,0 km/h (3 Bft) W-SW 240 0 min 76 W/m 15,0 C 11,5 C 27,4 km/h (5 Bft)
27.06.2016 17:57 15,9 C 94 % 1013,8 hPa 0,2 l/m 15,0 km/h (3 Bft) SW 228 0 min 51 W/m 14,9 C 12,3 C 29,0 km/h (5 Bft)
27.06.2016 18:00 15,8 C 94 % 1013,8 hPa 0,0 l/m 16,2 km/h (3 Bft) W-SW 248 0 min 76 W/m 14,8 C 11,8 C 27,4 km/h (5 Bft)
27.06.2016 18:03 15,7 C 94 % 1013,8 hPa 0,0 l/m 14,8 km/h (3 Bft) S-SW 213 0 min 54 W/m 14,7 C 12,1 C 19,3 km/h (3 Bft)
27.06.2016 18:06 15,7 C 94 % 1013,9 hPa 0,0 l/m 15,3 km/h (3 Bft) W-SW 240 0 min 81 W/m 14,7 C 11,9 C 19,3 km/h (3 Bft)
27.06.2016 18:09 15,8 C 95 % 1013,9 hPa 0,0 l/m 14,0 km/h (3 Bft) SW 227 0 min 40 W/m 15,0 C 12,5 C 24,1 km/h (4 Bft)
27.06.2016 18:12 15,8 C 95 % 1013,9 hPa 0,2 l/m 10,2 km/h (2 Bft) S-SW 205 0 min 19 W/m 15,0 C 13,9 C 20,9 km/h (4 Bft)
27.06.2016 18:15 15,9 C 95 % 1014,0 hPa 0,0 l/m 8,5 km/h (2 Bft) W-SW 238 0 min 9 W/m 15,1 C 14,8 C 17,7 km/h (3 Bft)
27.06.2016 18:18 15,9 C 94 % 1014,1 hPa 0,8 l/m 10,1 km/h (2 Bft) SW 223 0 min 16 W/m 14,9 C 14,1 C 17,7 km/h (3 Bft)
27.06.2016 18:21 15,8 C 94 % 1014,1 hPa 0,2 l/m 13,1 km/h (3 Bft) SW 235 0 min 37 W/m 14,8 C 12,8 C 20,9 km/h (4 Bft)
27.06.2016 18:24 15,7 C 94 % 1014,1 hPa 0,0 l/m 12,0 km/h (2 Bft) W 281 0 min 40 W/m 14,7 C 13,1 C 22,5 km/h (4 Bft)
27.06.2016 18:27 15,7 C 95 % 1014,1 hPa 0,2 l/m 9,8 km/h (2 Bft) SW 231 0 min 32 W/m 14,9 C 14,0 C 20,9 km/h (4 Bft)
27.06.2016 18:30 15,6 C 95 % 1014,1 hPa 0,0 l/m 9,9 km/h (2 Bft) W-NW 287 0 min 56 W/m 14,8 C 13,8 C 17,7 km/h (3 Bft)
27.06.2016 18:33 15,6 C 95 % 1014,1 hPa 0,2 l/m 11,8 km/h (2 Bft) W-SW 247 0 min 104 W/m 14,8 C 13,0 C 24,1 km/h (4 Bft)
27.06.2016 18:36 15,6 C 95 % 1014,1 hPa 0,0 l/m 10,4 km/h (2 Bft) S-SW 208 0 min 81 W/m 14,8 C 13,6 C 16,1 km/h (3 Bft)
27.06.2016 18:39 15,6 C 95 % 1014,1 hPa 0,2 l/m 8,4 km/h (2 Bft) SW 230 0 min 77 W/m 14,8 C 14,5 C 16,1 km/h (3 Bft)
27.06.2016 18:42 15,7 C 95 % 1014,1 hPa 0,0 l/m 10,7 km/h (2 Bft) W 276 0 min 98 W/m 14,9 C 13,6 C 17,7 km/h (3 Bft)
27.06.2016 18:45 15,7 C 95 % 1014,1 hPa 0,0 l/m 8,6 km/h (2 Bft) W-SW 248 0 min 113 W/m 14,9 C 14,5 C 16,1 km/h (3 Bft)
27.06.2016 18:48 15,8 C 94 % 1014,1 hPa 0,0 l/m 10,6 km/h (2 Bft) W-SW 238 0 min 104 W/m 14,8 C 13,7 C 20,9 km/h (4 Bft)
27.06.2016 18:51 15,7 C 94 % 1014,2 hPa 0,0 l/m 10,2 km/h (2 Bft) W-SW 250 0 min 109 W/m 14,7 C 13,8 C 19,3 km/h (3 Bft)
27.06.2016 18:54 15,8 C 93 % 1014,2 hPa 0,0 l/m 9,5 km/h (2 Bft) W-SW 248 0 min 109 W/m 14,7 C 14,2 C 20,9 km/h (4 Bft)
27.06.2016 18:57 15,8 C 93 % 1014,2 hPa 0,0 l/m 12,9 km/h (3 Bft) W 265 0 min 105 W/m 14,7 C 12,9 C 19,3 km/h (3 Bft)
27.06.2016 19:00 15,8 C 92 % 1014,2 hPa 0,0 l/m 10,3 km/h (2 Bft) SW 225 0 min 83 W/m 14,5 C 13,9 C 17,7 km/h (3 Bft)
27.06.2016 19:03 15,8 C 92 % 1014,3 hPa 0,0 l/m 6,9 km/h (2 Bft) W-NW 284 0 min 77 W/m 14,5 C 15,5 C 17,7 km/h (3 Bft)
27.06.2016 19:06 15,9 C 92 % 1014,2 hPa 0,0 l/m 13,4 km/h (3 Bft) W-SW 242 0 min 72 W/m 14,6 C 12,8 C 20,9 km/h (4 Bft)
27.06.2016 19:09 15,9 C 91 % 1014,2 hPa 0,0 l/m 9,1 km/h (2 Bft) W 270 0 min 77 W/m 14,4 C 14,5 C 20,9 km/h (4 Bft)
27.06.2016 19:12 15,9 C 91 % 1014,1 hPa 0,0 l/m 13,3 km/h (3 Bft) W-NW 300 0 min 72 W/m 14,4 C 12,8 C 22,5 km/h (4 Bft)
27.06.2016 19:15 15,9 C 90 % 1014,2 hPa 0,0 l/m 10,8 km/h (2 Bft) W 279 0 min 98 W/m 14,3 C 13,8 C 20,9 km/h (4 Bft)
27.06.2016 19:18 15,9 C 91 % 1014,2 hPa 0,0 l/m 13,1 km/h (3 Bft) W 273 0 min 86 W/m 14,4 C 12,9 C 20,9 km/h (4 Bft)
27.06.2016 19:21 15,9 C 90 % 1014,1 hPa 0,0 l/m 9,4 km/h (2 Bft) NW 311 0 min 74 W/m 14,3 C 14,4 C 19,3 km/h (3 Bft)
27.06.2016 19:24 15,9 C 90 % 1014,2 hPa 0,0 l/m 11,3 km/h (2 Bft) W-SW 253 0 min 93 W/m 14,3 C 13,6 C 19,3 km/h (3 Bft)
27.06.2016 19:27 15,9 C 90 % 1014,2 hPa 0,0 l/m 13,7 km/h (3 Bft) W-SW 248 0 min 100 W/m 14,3 C 12,7 C 20,9 km/h (4 Bft)
27.06.2016 19:30 15,9 C 90 % 1014,2 hPa 0,0 l/m 10,1 km/h (2 Bft) W-SW 238 0 min 90 W/m 14,3 C 14,1 C 19,3 km/h (3 Bft)
27.06.2016 19:33 15,9 C 90 % 1014,2 hPa 0,0 l/m 10,8 km/h (2 Bft) W-NW 291 0 min 91 W/m 14,3 C 13,8 C 19,3 km/h (3 Bft)
27.06.2016 19:36 16,0 C 90 % 1014,2 hPa 0,0 l/m 10,6 km/h (2 Bft) W 271 0 min 93 W/m 14,4 C 14,0 C 20,9 km/h (4 Bft)
27.06.2016 19:39 16,0 C 90 % 1014,2 hPa 0,0 l/m 10,3 km/h (2 Bft) W-NW 286 0 min 93 W/m 14,4 C 14,1 C 16,1 km/h (3 Bft)
27.06.2016 19:42 16,1 C 90 % 1014,3 hPa 0,0 l/m 10,5 km/h (2 Bft) W-NW 290 0 min 97 W/m 14,5 C 14,1 C 16,1 km/h (3 Bft)
27.06.2016 19:45 16,1 C 89 % 1014,3 hPa 0,0 l/m 10,0 km/h (2 Bft) W 263 0 min 90 W/m 14,3 C 14,3 C 20,9 km/h (4 Bft)
27.06.2016 19:48 16,0 C 89 % 1014,3 hPa 0,0 l/m 14,6 km/h (3 Bft) W-NW 284 0 min 67 W/m 14,2 C 12,5 C 24,1 km/h (4 Bft)
27.06.2016 19:51 16,0 C 89 % 1014,4 hPa 0,0 l/m 13,1 km/h (3 Bft) W 281 0 min 84 W/m 14,2 C 13,0 C 24,1 km/h (4 Bft)
27.06.2016 19:54 16,1 C 90 % 1014,4 hPa 0,0 l/m 10,9 km/h (2 Bft) W 278 3 min 283 W/m 14,5 C 14,0 C 22,5 km/h (4 Bft)
27.06.2016 19:57 16,2 C 89 % 1014,4 hPa 0,0 l/m 11,6 km/h (2 Bft) SW 227 3 min 283 W/m 14,4 C 13,8 C 22,5 km/h (4 Bft)
27.06.2016 20:00 16,2 C 88 % 1014,4 hPa 0,0 l/m 13,2 km/h (3 Bft) W 278 0 min 67 W/m 14,2 C 13,2 C 25,7 km/h (4 Bft)
27.06.2016 20:03 16,2 C 88 % 1014,4 hPa 0,0 l/m 11,2 km/h (2 Bft) SW 217 0 min 42 W/m 14,2 C 14,0 C 24,1 km/h (4 Bft)
27.06.2016 20:06 16,2 C 88 % 1014,5 hPa 0,0 l/m 10,9 km/h (2 Bft) W-SW 245 0 min 44 W/m 14,2 C 14,1 C 25,7 km/h (4 Bft)
27.06.2016 20:09 16,1 C 88 % 1014,4 hPa 0,0 l/m 13,3 km/h (3 Bft) W 273 0 min 33 W/m 14,1 C 13,1 C 20,9 km/h (4 Bft)
27.06.2016 20:12 16,1 C 89 % 1014,5 hPa 0,0 l/m 11,5 km/h (2 Bft) W 271 0 min 72 W/m 14,3 C 13,7 C 19,3 km/h (3 Bft)
27.06.2016 20:15 16,0 C 89 % 1014,5 hPa 0,0 l/m 13,8 km/h (3 Bft) W-SW 240 0 min 28 W/m 14,2 C 12,8 C 19,3 km/h (3 Bft)
27.06.2016 20:18 15,9 C 89 % 1014,4 hPa 0,0 l/m 13,2 km/h (3 Bft) W 266 0 min 35 W/m 14,1 C 12,9 C 22,5 km/h (4 Bft)
27.06.2016 20:21 15,9 C 89 % 1014,4 hPa 0,0 l/m 12,7 km/h (3 Bft) W 281 0 min 54 W/m 14,1 C 13,1 C 20,9 km/h (4 Bft)
27.06.2016 20:24 15,8 C 88 % 1014,5 hPa 0,0 l/m 13,6 km/h (3 Bft) W-NW 293 0 min 51 W/m 13,8 C 12,6 C 24,1 km/h (4 Bft)
27.06.2016 20:27 15,8 C 88 % 1014,4 hPa 0,0 l/m 11,4 km/h (2 Bft) N 355 0 min 46 W/m 13,8 C 13,4 C 22,5 km/h (4 Bft)
27.06.2016 20:30 15,8 C 89 % 1014,5 hPa 0,0 l/m 10,0 km/h (2 Bft) W 265 0 min 37 W/m 14,0 C 14,0 C 20,9 km/h (4 Bft)
27.06.2016 20:33 15,8 C 89 % 1014,4 hPa 0,0 l/m 9,2 km/h (2 Bft) W 275 0 min 54 W/m 14,0 C 14,4 C 16,1 km/h (3 Bft)
27.06.2016 20:36 15,8 C 90 % 1014,4 hPa 0,0 l/m 6,0 km/h (2 Bft) W 269 0 min 33 W/m 14,2 C 15,8 C 12,9 km/h (3 Bft)
27.06.2016 20:39 15,8 C 90 % 1014,4 hPa 0,0 l/m 7,8 km/h (2 Bft) SW 216 0 min 37 W/m 14,2 C 15,0 C 14,5 km/h (3 Bft)
27.06.2016 20:42 15,8 C 90 % 1014,5 hPa 0,0 l/m 8,6 km/h (2 Bft) W-NW 283 0 min 28 W/m 14,2 C 14,6 C 17,7 km/h (3 Bft)
27.06.2016 20:45 15,7 C 89 % 1014,5 hPa 0,0 l/m 9,4 km/h (2 Bft) W 268 0 min 25 W/m 13,9 C 14,2 C 20,9 km/h (4 Bft)
27.06.2016 20:48 15,7 C 89 % 1014,5 hPa 0,0 l/m 6,3 km/h (2 Bft) W 271 0 min 23 W/m 13,9 C 15,7 C 16,1 km/h (3 Bft)
27.06.2016 20:51 15,6 C 88 % 1014,5 hPa 0,0 l/m 8,0 km/h (2 Bft) W-NW 284 0 min 28 W/m 13,6 C 14,7 C 16,1 km/h (3 Bft)
27.06.2016 20:54 15,5 C 89 % 1014,5 hPa 0,0 l/m 10,3 km/h (2 Bft) W-NW 296 0 min 28 W/m 13,7 C 13,5 C 20,9 km/h (4 Bft)
27.06.2016 20:57 15,5 C 89 % 1014,5 hPa 0,0 l/m 7,3 km/h (2 Bft) W 269 0 min 25 W/m 13,7 C 15,0 C 16,1 km/h (3 Bft)
27.06.2016 21:00 15,5 C 89 % 1014,5 hPa 0,0 l/m 9,3 km/h (2 Bft) W 281 0 min 21 W/m 13,7 C 14,0 C 19,3 km/h (3 Bft)
27.06.2016 21:03 15,4 C 89 % 1014,6 hPa 0,0 l/m 10,8 km/h (2 Bft) W-NW 288 0 min 23 W/m 13,6 C 13,2 C 19,3 km/h (3 Bft)
27.06.2016 21:06 15,4 C 89 % 1014,5 hPa 0,0 l/m 8,2 km/h (2 Bft) W-SW 254 0 min 23 W/m 13,6 C 14,4 C 14,5 km/h (3 Bft)
27.06.2016 21:09 15,4 C 89 % 1014,5 hPa 0,0 l/m 4,7 km/h (1 Bft) W 270 0 min 30 W/m 13,6 C 15,4 C 11,3 km/h (2 Bft)
27.06.2016 21:12 15,5 C 90 % 1014,5 hPa 0,0 l/m 7,1 km/h (2 Bft) W-NW 292 0 min 26 W/m 13,9 C 15,1 C 17,7 km/h (3 Bft)
27.06.2016 21:15 15,5 C 90 % 1014,5 hPa 0,0 l/m 3,6 km/h (1 Bft) W 267 0 min 32 W/m 13,9 C 15,5 C 9,7 km/h (2 Bft)
27.06.2016 21:18 15,6 C 90 % 1014,5 hPa 0,0 l/m 10,8 km/h (2 Bft) W 268 0 min 21 W/m 14,0 C 13,4 C 20,9 km/h (4 Bft)
27.06.2016 21:21 15,6 C 90 % 1014,6 hPa 0,0 l/m 7,9 km/h (2 Bft) W 281 0 min 28 W/m 14,0 C 14,8 C 16,1 km/h (3 Bft)
27.06.2016 21:24 15,6 C 90 % 1014,6 hPa 0,0 l/m 3,1 km/h (1 Bft) NW 322 0 min 25 W/m 14,0 C 15,6 C 8,0 km/h (2 Bft)
27.06.2016 21:27 15,6 C 90 % 1014,6 hPa 0,0 l/m 5,0 km/h (1 Bft) W-SW 257 0 min 21 W/m 14,0 C 15,6 C 11,3 km/h (2 Bft)
27.06.2016 21:30 15,6 C 90 % 1014,7 hPa 0,0 l/m 10,3 km/h (2 Bft) W-NW 295 0 min 14 W/m 14,0 C 13,7 C 19,3 km/h (3 Bft)
27.06.2016 21:33 15,5 C 90 % 1014,7 hPa 0,0 l/m 9,7 km/h (2 Bft) W 271 0 min 14 W/m 13,9 C 13,8 C 16,1 km/h (3 Bft)
27.06.2016 21:36 15,5 C 90 % 1014,7 hPa 0,0 l/m 6,0 km/h (2 Bft) SW 230 0 min 14 W/m 13,9 C 15,5 C 12,9 km/h (3 Bft)
27.06.2016 21:39 15,4 C 90 % 1014,8 hPa 0,0 l/m 4,8 km/h (1 Bft) W-NW 302 0 min 9 W/m 13,8 C 15,4 C 11,3 km/h (2 Bft)
27.06.2016 21:42 15,4 C 90 % 1014,8 hPa 0,0 l/m 5,3 km/h (1 Bft) W 279 0 min 7 W/m 13,8 C 15,4 C 11,3 km/h (2 Bft)
27.06.2016 21:45 15,3 C 90 % 1014,8 hPa 0,0 l/m 5,5 km/h (2 Bft) W 265 0 min 7 W/m 13,7 C 15,3 C 16,1 km/h (3 Bft)
27.06.2016 21:48 15,3 C 90 % 1014,9 hPa 0,0 l/m 4,2 km/h (1 Bft) W 278 0 min 5 W/m 13,7 C 15,3 C 11,3 km/h (2 Bft)
27.06.2016 21:51 15,3 C 90 % 1014,9 hPa 0,0 l/m 7,4 km/h (2 Bft) SW 230 0 min 5 W/m 13,7 C 14,7 C 14,5 km/h (3 Bft)
27.06.2016 21:54 15,2 C 90 % 1015,0 hPa 0,0 l/m 7,5 km/h (2 Bft) W 265 0 min 0 W/m 13,6 C 14,6 C 12,9 km/h (3 Bft)
27.06.2016 21:57 15,2 C 90 % 1015,0 hPa 0,0 l/m 6,8 km/h (2 Bft) W 263 0 min 0 W/m 13,6 C 15,0 C 11,3 km/h (2 Bft)
27.06.2016 22:00 15,2 C 90 % 1015,1 hPa 0,0 l/m 7,0 km/h (2 Bft) W-NW 294 0 min 0 W/m 13,6 C 14,9 C 16,1 km/h (3 Bft)
27.06.2016 22:03 15,2 C 90 % 1015,1 hPa 0,0 l/m 8,6 km/h (2 Bft) SW 228 0 min 0 W/m 13,6 C 14,0 C 17,7 km/h (3 Bft)
27.06.2016 22:06 15,1 C 90 % 1015,1 hPa 0,0 l/m 7,6 km/h (2 Bft) W-SW 257 0 min 0 W/m 13,5 C 14,4 C 16,1 km/h (3 Bft)
27.06.2016 22:09 15,1 C 90 % 1015,1 hPa 0,0 l/m 8,3 km/h (2 Bft) W 271 0 min 0 W/m 13,5 C 14,0 C 17,7 km/h (3 Bft)
27.06.2016 22:12 15,1 C 90 % 1015,2 hPa 0,0 l/m 6,8 km/h (2 Bft) W-NW 294 0 min 0 W/m 13,5 C 14,9 C 16,1 km/h (3 Bft)
27.06.2016 22:15 15,1 C 90 % 1015,2 hPa 0,0 l/m 6,2 km/h (2 Bft) W-SW 244 0 min 0 W/m 13,5 C 15,1 C 14,5 km/h (3 Bft)
27.06.2016 22:18 15,1 C 90 % 1015,2 hPa 0,0 l/m 8,6 km/h (2 Bft) W-SW 252 0 min 0 W/m 13,5 C 13,9 C 16,1 km/h (3 Bft)
27.06.2016 22:21 15,1 C 90 % 1015,2 hPa 0,0 l/m 7,0 km/h (2 Bft) W-NW 289 0 min 0 W/m 13,5 C 14,8 C 14,5 km/h (3 Bft)
27.06.2016 22:24 15,1 C 90 % 1015,2 hPa 0,0 l/m 5,8 km/h (2 Bft) W-NW 294 0 min 0 W/m 13,5 C 15,1 C 14,5 km/h (3 Bft)
27.06.2016 22:27 15,1 C 90 % 1015,2 hPa 0,0 l/m 8,2 km/h (2 Bft) W 268 0 min 0 W/m 13,5 C 14,1 C 16,1 km/h (3 Bft)
27.06.2016 22:30 15,1 C 90 % 1015,2 hPa 0,0 l/m 7,4 km/h (2 Bft) NW 318 0 min 0 W/m 13,5 C 14,5 C 14,5 km/h (3 Bft)
27.06.2016 22:33 15,1 C 90 % 1015,2 hPa 0,0 l/m 6,3 km/h (2 Bft) W 259 0 min 0 W/m 13,5 C 15,1 C 12,9 km/h (3 Bft)
27.06.2016 22:36 15,1 C 90 % 1015,3 hPa 0,0 l/m 3,9 km/h (1 Bft) W 266 0 min 0 W/m 13,5 C 15,1 C 9,7 km/h (2 Bft)
27.06.2016 22:39 15,0 C 90 % 1015,3 hPa 0,0 l/m 7,0 km/h (2 Bft) NW 313 0 min 0 W/m 13,4 C 14,7 C 14,5 km/h (3 Bft)
27.06.2016 22:42 14,9 C 90 % 1015,3 hPa 0,0 l/m 5,1 km/h (1 Bft) W 275 0 min 0 W/m 13,3 C 14,9 C 9,7 km/h (2 Bft)
27.06.2016 22:45 14,9 C 90 % 1015,3 hPa 0,0 l/m 5,5 km/h (2 Bft) N-NW 333 0 min 0 W/m 13,3 C 14,9 C 12,9 km/h (3 Bft)
27.06.2016 22:48 14,9 C 91 % 1015,4 hPa 0,0 l/m 3,4 km/h (1 Bft) W 267 0 min 0 W/m 13,4 C 14,9 C 6,4 km/h (2 Bft)
27.06.2016 22:51 14,9 C 91 % 1015,4 hPa 0,0 l/m 5,6 km/h (2 Bft) N-NW 343 0 min 0 W/m 13,4 C 14,9 C 11,3 km/h (2 Bft)
27.06.2016 22:54 14,9 C 91 % 1015,4 hPa 0,0 l/m 3,9 km/h (1 Bft) W 279 0 min 0 W/m 13,4 C 14,9 C 9,7 km/h (2 Bft)
27.06.2016 22:57 14,9 C 91 % 1015,4 hPa 0,0 l/m 4,6 km/h (1 Bft) W-NW 300 0 min 0 W/m 13,4 C 14,9 C 12,9 km/h (3 Bft)
27.06.2016 23:00 14,8 C 91 % 1015,4 hPa 0,0 l/m 3,7 km/h (1 Bft) W 277 0 min 0 W/m 13,3 C 14,8 C 9,7 km/h (2 Bft)
27.06.2016 23:03 14,9 C 91 % 1015,3 hPa 0,0 l/m 3,7 km/h (1 Bft) W 277 0 min 0 W/m 13,4 C 14,9 C 11,3 km/h (2 Bft)
27.06.2016 23:06 14,9 C 91 % 1015,4 hPa 0,0 l/m 5,0 km/h (1 Bft) W-NW 294 0 min 0 W/m 13,4 C 14,9 C 11,3 km/h (2 Bft)
27.06.2016 23:09 14,9 C 91 % 1015,3 hPa 0,0 l/m 4,5 km/h (1 Bft) W-NW 294 0 min 0 W/m 13,4 C 14,9 C 9,7 km/h (2 Bft)
27.06.2016 23:12 14,9 C 91 % 1015,3 hPa 0,0 l/m 2,3 km/h (1 Bft) NW 316 0 min 0 W/m 13,4 C 14,9 C 4,8 km/h (1 Bft)
27.06.2016 23:15 14,9 C 91 % 1015,4 hPa 0,0 l/m 2,7 km/h (1 Bft) W-NW 283 0 min 0 W/m 13,4 C 14,9 C 4,8 km/h (1 Bft)
27.06.2016 23:18 14,9 C 91 % 1015,3 hPa 0,0 l/m 3,7 km/h (1 Bft) W-NW 284 0 min 0 W/m 13,4 C 14,9 C 11,3 km/h (2 Bft)
27.06.2016 23:21 14,9 C 91 % 1015,4 hPa 0,0 l/m 5,3 km/h (1 Bft) W-NW 298 0 min 0 W/m 13,4 C 14,9 C 11,3 km/h (2 Bft)
27.06.2016 23:24 14,9 C 91 % 1015,4 hPa 0,0 l/m 4,8 km/h (1 Bft) W 263 0 min 0 W/m 13,4 C 14,9 C 12,9 km/h (3 Bft)
27.06.2016 23:27 14,9 C 91 % 1015,4 hPa 0,0 l/m 2,2 km/h (1 Bft) W 261 0 min 0 W/m 13,4 C 14,9 C 3,2 km/h (1 Bft)
27.06.2016 23:30 14,9 C 91 % 1015,4 hPa 0,0 l/m 4,4 km/h (1 Bft) W 264 0 min 0 W/m 13,4 C 14,9 C 11,3 km/h (2 Bft)
27.06.2016 23:33 14,9 C 91 % 1015,4 hPa 0,0 l/m 5,5 km/h (2 Bft) W 267 0 min 0 W/m 13,4 C 14,9 C 11,3 km/h (2 Bft)
27.06.2016 23:36 14,9 C 91 % 1015,4 hPa 0,0 l/m 4,2 km/h (1 Bft) W 281 0 min 0 W/m 13,4 C 14,9 C 6,4 km/h (2 Bft)
27.06.2016 23:39 14,9 C 91 % 1015,5 hPa 0,0 l/m 4,6 km/h (1 Bft) NW 319 0 min 0 W/m 13,4 C 14,9 C 12,9 km/h (3 Bft)
27.06.2016 23:42 14,9 C 91 % 1015,5 hPa 0,0 l/m 5,7 km/h (2 Bft) W 271 0 min 0 W/m 13,4 C 14,9 C 11,3 km/h (2 Bft)
27.06.2016 23:45 14,9 C 91 % 1015,4 hPa 0,0 l/m 4,1 km/h (1 Bft) W 275 0 min 0 W/m 13,4 C 14,9 C 9,7 km/h (2 Bft)
27.06.2016 23:48 14,8 C 91 % 1015,5 hPa 0,0 l/m 6,1 km/h (2 Bft) W 281 0 min 0 W/m 13,3 C 14,8 C 12,9 km/h (3 Bft)
27.06.2016 23:51 14,8 C 91 % 1015,5 hPa 0,0 l/m 4,2 km/h (1 Bft) N 5 0 min 0 W/m 13,3 C 14,8 C 11,3 km/h (2 Bft)
27.06.2016 23:54 14,8 C 91 % 1015,5 hPa 0,0 l/m 6,4 km/h (2 Bft) W 281 0 min 0 W/m 13,3 C 14,8 C 12,9 km/h (3 Bft)
27.06.2016 23:57 14,8 C 91 % 1015,5 hPa 0,0 l/m 4,2 km/h (1 Bft) W-SW 253 0 min 0 W/m 13,3 C 14,8 C 11,3 km/h (2 Bft)
_ Min-Zeit 02:27 14:36 14:12 - 00:39 - - - - 05:12 04:30 00:36
Minimum _ 12,6 C 73 % 1013,3 hPa - 0,3 km/h (0 Bft) - - - - 11,4 C 9,4 C 1,6 km/h (1 Bft)
_ Max-Zeit 12:03 02:09 23:39 18:18 12:27 - - 10:54 12:00 17:15 13:36 12:18
Maximum _ 18,9 C 95 % 1015,5 hPa 0,8 l/m 21,4 km/h
SW (4 Bft)
- - 3 min 830 W/m 15,4 C 17,2 C 35,4 km/h
SW (5 Bft)
Durchschnitt _ 15,5 C 88 % 1014,1 hPa #4,8 l/m 9,5 km/h (2 Bft) SW - #30 min. 120 W/m 13,5 C 13,9 C 17,0 km/h (3 Bft)
2016 Cux-Wetter.de -Die Nutzung der Wetterdaten nur mit ausdrcklicher Genehmigung